DLH578 EDDM-FAOR

Flight info

Callsign DLH578
Flight time 9h 51m
Altitude 39000
Route TURBU7S/26L TURBU Y107 TOBSO DCT BAKOR DCT VESAL DCT LUMAV DCT TINTO DCT QUENN DCT ABDAB/N0479F380 UL44 TUC UW411 EBA UG362 BARKA/N0478F390 UM2 DJA UB730 DIR UA607 USPOK/N0481F410 UA607 FL UM731 RUDAS UQ25 ITROL UQ44 AVAGO AVAGO1D
Aircraft A359/H-SADE2E3GHIJ1J2J3J4J5M1P2RWXYZ/LB1D1

Departure

Time 2026-05-05 18:04
Airport Munich Airport (EDDM)

Arrival

Time 2026-05-06 03:55
Airport O.R. Tambo International Airport (FAOR)
Time Latitude Longitude Altitude Speed Heading
2026-05-05 17:16 48.35410 11.79316 1463 ft 0 kts 273°
2026-05-05 17:52 48.35410 11.79326 1473 ft 4 kts 273°
2026-05-05 17:52 48.35408 11.79366 1468 ft 2 kts 273°
2026-05-05 17:52 48.35409 11.79400 1461 ft 4 kts 248°
2026-05-05 17:52 48.35424 11.79431 1461 ft 4 kts 216°
2026-05-05 17:53 48.35447 11.79449 1461 ft 4 kts 193°
2026-05-05 17:53 48.35466 11.79453 1463 ft 0 kts 175°
2026-05-05 17:57 48.35464 11.79453 1473 ft 3 kts 174°
2026-05-05 17:57 48.35398 11.79464 1463 ft 16 kts 173°
2026-05-05 17:57 48.35282 11.79483 1463 ft 17 kts 173°
2026-05-05 17:58 48.35174 11.79507 1465 ft 15 kts 172°
2026-05-05 17:58 48.35066 11.79527 1465 ft 15 kts 173°
2026-05-05 17:58 48.34985 11.79542 1464 ft 8 kts 174°
2026-05-05 17:58 48.34926 11.79550 1462 ft 8 kts 174°
2026-05-05 17:59 48.34906 11.79553 1467 ft 0 kts 174°
2026-05-05 18:00 48.34883 11.79557 1464 ft 8 kts 174°
2026-05-05 18:00 48.34826 11.79576 1461 ft 9 kts 151°
2026-05-05 18:00 48.34801 11.79650 1466 ft 10 kts 94°
2026-05-05 18:01 48.34807 11.79771 1469 ft 12 kts 84°
2026-05-05 18:01 48.34817 11.79904 1464 ft 13 kts 83°
2026-05-05 18:01 48.34828 11.80045 1465 ft 14 kts 83°
2026-05-05 18:01 48.34839 11.80192 1465 ft 14 kts 83°
2026-05-05 18:02 48.34823 11.80334 1462 ft 14 kts 129°
2026-05-05 18:02 48.34738 11.80396 1463 ft 14 kts 169°
2026-05-05 18:02 48.34635 11.80419 1465 ft 16 kts 174°
2026-05-05 18:02 48.34526 11.80430 1461 ft 12 kts 182°
2026-05-05 18:03 48.34478 11.80380 1463 ft 7 kts 245°
2026-05-05 18:03 48.34470 11.80329 1469 ft 4 kts 259°
2026-05-05 18:03 48.34459 11.80222 1469 ft 31 kts 263°
2026-05-05 18:03 48.34410 11.79578 1462 ft 92 kts 263°
2026-05-05 18:04 48.34316 11.78349 1471 ft 143 kts 263°
2026-05-05 18:04 48.34188 11.76670 1708 ft 166 kts 263°
2026-05-05 18:04 48.34081 11.75021 2447 ft 156 kts 266°
2026-05-05 18:04 48.33963 11.73420 3051 ft 153 kts 268°
2026-05-05 18:05 48.33535 11.71861 3266 ft 176 kts 235°
2026-05-05 18:05 48.32431 11.70834 3440 ft 204 kts 197°
2026-05-05 18:05 48.30953 11.70649 3738 ft 222 kts 184°
2026-05-05 18:05 48.29381 11.70747 4208 ft 230 kts 174°
2026-05-05 18:06 48.27855 11.71590 4695 ft 243 kts 152°
2026-05-05 18:06 48.26883 11.72509 4893 ft 256 kts 148°
2026-05-05 18:06 48.24851 11.74636 5494 ft 273 kts 147°
2026-05-05 18:06 48.23286 11.76271 6193 ft 276 kts 147°
2026-05-05 18:07 48.21694 11.77914 6648 ft 278 kts 148°
2026-05-05 18:07 48.20097 11.79548 6794 ft 279 kts 148°
2026-05-05 18:07 48.18481 11.81147 6805 ft 279 kts 153°
2026-05-05 18:07 48.16719 11.82326 6808 ft 276 kts 163°
2026-05-05 18:08 48.14899 11.83253 6806 ft 276 kts 165°
2026-05-05 18:08 48.13073 11.84151 6810 ft 277 kts 165°
2026-05-05 18:08 48.11243 11.85051 6856 ft 276 kts 165°
2026-05-05 18:08 48.09434 11.85939 7190 ft 279 kts 164°
2026-05-05 18:09 48.07589 11.86854 7954 ft 279 kts 164°
2026-05-05 18:09 48.05753 11.87766 8810 ft 278 kts 164°
2026-05-05 18:09 48.03911 11.88679 9613 ft 280 kts 165°
2026-05-05 18:09 48.02047 11.89601 10242 ft 288 kts 164°
2026-05-05 18:10 48.00086 11.90568 10556 ft 306 kts 164°
2026-05-05 18:10 47.98002 11.91596 10860 ft 325 kts 164°
2026-05-05 18:10 47.95800 11.92684 11192 ft 340 kts 164°
2026-05-05 18:10 47.93524 11.93810 11725 ft 348 kts 164°
2026-05-05 18:11 47.91168 11.94699 12387 ft 350 kts 174°
2026-05-05 18:11 47.88733 11.95023 13060 ft 354 kts 179°
2026-05-05 18:11 47.86253 11.95067 13700 ft 358 kts 182°
2026-05-05 18:11 47.83749 11.94974 14294 ft 361 kts 184°
2026-05-05 18:12 47.81233 11.94840 14951 ft 363 kts 184°
2026-05-05 18:12 47.78697 11.94715 15569 ft 366 kts 184°
2026-05-05 18:12 47.76143 11.94613 16183 ft 368 kts 184°
2026-05-05 18:12 47.73571 11.94535 16807 ft 371 kts 183°
2026-05-05 18:13 47.70983 11.94471 17447 ft 374 kts 183°
2026-05-05 18:13 47.68369 11.94423 18022 ft 377 kts 183°
2026-05-05 18:13 47.65743 11.94379 18620 ft 378 kts 184°
2026-05-05 18:13 47.63101 11.94334 19173 ft 381 kts 183°
2026-05-05 18:14 47.60441 11.94292 19792 ft 382 kts 183°
2026-05-05 18:14 47.57773 11.94256 20396 ft 385 kts 184°
2026-05-05 18:14 47.55086 11.94214 20981 ft 388 kts 184°
2026-05-05 18:14 47.52380 11.94166 21571 ft 390 kts 184°
2026-05-05 18:15 47.49660 11.94118 22198 ft 392 kts 184°
2026-05-05 18:15 47.46923 11.94070 22792 ft 394 kts 184°
2026-05-05 18:15 47.44175 11.93991 23341 ft 396 kts 186°
2026-05-05 18:15 47.41426 11.93624 23785 ft 398 kts 189°
2026-05-05 18:16 47.38669 11.93147 24246 ft 400 kts 190°
2026-05-05 18:16 47.35895 11.92614 24691 ft 403 kts 191°
2026-05-05 18:16 47.33106 11.92051 25197 ft 406 kts 191°
2026-05-05 18:16 47.31254 11.91672 25505 ft 407 kts 191°
2026-05-05 18:17 47.27484 11.90900 26122 ft 411 kts 191°
2026-05-05 18:17 47.24641 11.90323 26606 ft 414 kts 191°
2026-05-05 18:17 47.21782 11.89743 27061 ft 416 kts 191°
2026-05-05 18:17 47.18908 11.89167 27502 ft 419 kts 191°
2026-05-05 18:18 47.16990 11.88787 27802 ft 420 kts 191°
2026-05-05 18:18 47.14083 11.88213 28231 ft 423 kts 191°
2026-05-05 18:18 47.10201 11.87448 28782 ft 426 kts 191°
2026-05-05 18:18 47.07261 11.86866 29200 ft 429 kts 191°
2026-05-05 18:19 47.04295 11.86246 29550 ft 432 kts 192°
2026-05-05 18:19 47.01313 11.85618 29888 ft 435 kts 191°
2026-05-05 18:19 46.99287 11.85167 30154 ft 435 kts 193°
2026-05-05 18:19 46.95357 11.84006 30605 ft 436 kts 195°
2026-05-05 18:20 46.93360 11.83337 30852 ft 436 kts 196°
2026-05-05 18:20 46.90395 11.82321 31142 ft 439 kts 196°
2026-05-05 18:20 46.87413 11.81308 31418 ft 441 kts 196°
2026-05-05 18:20 46.84420 11.80313 31706 ft 443 kts 195°
2026-05-05 18:21 46.81394 11.79329 31992 ft 446 kts 195°
2026-05-05 18:21 46.78402 11.78373 32330 ft 446 kts 195°
2026-05-05 18:21 46.75360 11.77409 32555 ft 450 kts 195°
2026-05-05 18:21 46.72288 11.76441 32750 ft 453 kts 195°
2026-05-05 18:22 46.69203 11.75472 33018 ft 454 kts 195°
2026-05-05 18:22 46.66113 11.74503 33348 ft 454 kts 195°
2026-05-05 18:22 46.63030 11.73549 33748 ft 453 kts 194°
2026-05-05 18:22 46.59907 11.72925 34085 ft 454 kts 187°
2026-05-05 18:23 46.56750 11.72616 34326 ft 455 kts 187°
2026-05-05 18:23 46.53589 11.72393 34622 ft 454 kts 186°
2026-05-05 18:23 46.50428 11.72214 34885 ft 454 kts 186°
2026-05-05 18:23 46.47265 11.72052 35105 ft 455 kts 186°
2026-05-05 18:24 46.44102 11.71894 35367 ft 454 kts 186°
2026-05-05 18:24 46.40947 11.71733 35622 ft 454 kts 186°
2026-05-05 18:24 46.37792 11.71568 35862 ft 453 kts 186°
2026-05-05 18:24 46.34637 11.71387 35999 ft 455 kts 186°
2026-05-05 18:25 46.31472 11.71181 36169 ft 456 kts 186°
2026-05-05 18:25 46.29368 11.71038 36328 ft 456 kts 186°
2026-05-05 18:25 46.25136 11.70753 36638 ft 455 kts 186°
2026-05-05 18:25 46.21977 11.70542 36865 ft 455 kts 186°
2026-05-05 18:26 46.18815 11.70331 37072 ft 454 kts 186°
2026-05-05 18:26 46.15659 11.70123 37267 ft 454 kts 186°
2026-05-05 18:26 46.12502 11.69917 37417 ft 454 kts 186°
2026-05-05 18:26 46.09343 11.69714 37590 ft 454 kts 186°
2026-05-05 18:27 46.06188 11.69511 37801 ft 454 kts 186°
2026-05-05 18:27 46.03037 11.69307 37963 ft 454 kts 186°
2026-05-05 18:27 45.99886 11.69108 38053 ft 454 kts 186°
2026-05-05 18:27 45.96732 11.68907 38230 ft 453 kts 186°
2026-05-05 18:28 45.90392 11.68495 38427 ft 457 kts 186°
2026-05-05 18:28 45.87267 11.68293 38701 ft 455 kts 186°
2026-05-05 18:28 45.84068 11.68087 38822 ft 455 kts 186°
2026-05-05 18:29 45.77776 11.67685 38969 ft 456 kts 186°
2026-05-05 18:29 45.71413 11.67278 39010 ft 460 kts 186°
2026-05-05 18:30 45.65010 11.66870 39000 ft 461 kts 186°
2026-05-05 18:30 45.58606 11.66465 39006 ft 460 kts 186°
2026-05-05 18:31 45.52203 11.66060 38995 ft 461 kts 186°
2026-05-05 18:31 45.45781 11.65654 38998 ft 462 kts 186°
2026-05-05 18:32 45.39353 11.65249 39000 ft 462 kts 186°
2026-05-05 18:32 45.32929 11.64844 39005 ft 462 kts 186°
2026-05-05 18:33 45.26497 11.64441 38998 ft 463 kts 186°
2026-05-05 18:33 45.20050 11.64036 39009 ft 464 kts 186°
2026-05-05 18:34 45.13594 11.63634 39009 ft 465 kts 187°
2026-05-05 18:34 45.07126 11.63230 39012 ft 465 kts 187°
2026-05-05 18:35 45.00656 11.62828 39014 ft 465 kts 187°
2026-05-05 18:35 44.94185 11.62428 39013 ft 465 kts 187°
2026-05-05 18:36 44.87725 11.62028 39018 ft 465 kts 187°
2026-05-05 18:36 44.81314 11.61632 39007 ft 464 kts 187°
2026-05-05 18:37 44.74904 11.60801 38995 ft 461 kts 192°
2026-05-05 18:37 44.68554 11.59545 38991 ft 461 kts 193°
2026-05-05 18:38 44.62202 11.58328 38985 ft 461 kts 192°
2026-05-05 18:38 44.55833 11.57197 38983 ft 461 kts 192°
2026-05-05 18:39 44.49459 11.56103 38981 ft 461 kts 192°
2026-05-05 18:39 44.43085 11.55014 38986 ft 461 kts 192°
2026-05-05 18:40 44.36718 11.53928 38996 ft 460 kts 192°
2026-05-05 18:40 44.30378 11.52845 39004 ft 458 kts 192°
2026-05-05 18:41 44.24045 11.51768 39024 ft 458 kts 192°
2026-05-05 18:41 44.17715 11.50688 39021 ft 458 kts 193°
2026-05-05 18:42 44.11387 11.49604 39024 ft 458 kts 193°
2026-05-05 18:42 44.05051 11.48531 39014 ft 459 kts 192°
2026-05-05 18:43 43.98724 11.47465 39001 ft 458 kts 193°
2026-05-05 18:43 43.92403 11.46400 38995 ft 457 kts 193°
2026-05-05 18:44 43.86091 11.45337 39003 ft 457 kts 193°
2026-05-05 18:44 43.79777 11.44279 39000 ft 458 kts 193°
2026-05-05 18:45 43.73438 11.43215 39001 ft 458 kts 193°
2026-05-05 18:45 43.67098 11.42151 39000 ft 459 kts 193°
2026-05-05 18:46 43.60757 11.41090 39005 ft 460 kts 193°
2026-05-05 18:46 43.54400 11.40032 39001 ft 460 kts 193°
2026-05-05 18:47 43.48048 11.38976 39003 ft 460 kts 193°
2026-05-05 18:47 43.41730 11.37953 39005 ft 460 kts 193°
2026-05-05 18:48 43.35372 11.36891 39003 ft 460 kts 193°
2026-05-05 18:48 43.29012 11.35829 39003 ft 460 kts 193°
2026-05-05 18:49 43.22655 11.34776 39006 ft 461 kts 193°
2026-05-05 18:49 43.16287 11.33728 39009 ft 461 kts 193°
2026-05-05 18:50 43.09918 11.32682 39011 ft 461 kts 193°
2026-05-05 18:50 43.03552 11.31639 39007 ft 460 kts 193°
2026-05-05 18:51 42.97199 11.30603 39016 ft 459 kts 193°
2026-05-05 18:51 42.90865 11.29570 39009 ft 458 kts 193°
2026-05-05 18:52 42.84553 11.28543 39002 ft 456 kts 193°
2026-05-05 18:52 42.78279 11.27524 39007 ft 453 kts 193°
2026-05-05 18:53 42.72019 11.26508 39006 ft 453 kts 193°
2026-05-05 18:53 42.65758 11.25493 38990 ft 453 kts 193°
2026-05-05 18:54 42.59501 11.24482 38994 ft 453 kts 193°
2026-05-05 18:54 42.53287 11.23481 38998 ft 453 kts 193°
2026-05-05 18:55 42.47031 11.22475 38995 ft 453 kts 193°
2026-05-05 18:55 42.40775 11.21470 38998 ft 453 kts 193°
2026-05-05 18:56 42.34509 11.20466 39004 ft 453 kts 193°
2026-05-05 18:56 42.28247 11.19465 39002 ft 453 kts 193°
2026-05-05 18:57 42.21981 11.18465 38998 ft 453 kts 193°
2026-05-05 18:57 42.15716 11.17468 38998 ft 453 kts 193°
2026-05-05 18:58 42.09451 11.16472 39004 ft 453 kts 193°
2026-05-05 18:58 42.03184 11.15478 39002 ft 454 kts 193°
2026-05-05 18:59 41.96908 11.14484 38998 ft 454 kts 193°
2026-05-05 18:59 41.90631 11.13493 38991 ft 454 kts 193°
2026-05-05 19:00 41.84357 11.12502 38993 ft 454 kts 193°
2026-05-05 19:00 41.78077 11.11514 38999 ft 454 kts 193°
2026-05-05 19:01 41.71793 11.10528 38999 ft 455 kts 193°
2026-05-05 19:01 41.65512 11.09544 38984 ft 455 kts 192°
2026-05-05 19:02 41.59213 11.08557 38999 ft 456 kts 192°
2026-05-05 19:02 41.52902 11.07572 38999 ft 457 kts 192°
2026-05-05 19:03 41.46666 11.06205 39000 ft 450 kts 201°
2026-05-05 19:03 41.40650 11.03923 38999 ft 451 kts 202°
2026-05-05 19:04 41.34645 11.01470 38993 ft 452 kts 202°
2026-05-05 19:04 41.28641 10.99004 38993 ft 452 kts 202°
2026-05-05 19:05 41.22628 10.96558 38990 ft 452 kts 201°
2026-05-05 19:05 41.16590 10.94116 38993 ft 454 kts 201°
2026-05-05 19:06 41.10582 10.91696 38993 ft 455 kts 201°
2026-05-05 19:06 41.04528 10.89262 38976 ft 454 kts 201°
2026-05-05 19:07 40.99455 10.87225 38997 ft 455 kts 201°
2026-05-05 19:07 40.93394 10.84795 38993 ft 455 kts 201°
2026-05-05 19:08 40.87330 10.82368 38993 ft 455 kts 201°
2026-05-05 19:08 40.81268 10.79947 38989 ft 455 kts 201°
2026-05-05 19:09 40.75214 10.77534 38996 ft 454 kts 201°
2026-05-05 19:09 40.69163 10.75127 38996 ft 454 kts 201°
2026-05-05 19:10 40.63148 10.72738 38987 ft 454 kts 201°
2026-05-05 19:10 40.57094 10.70338 38999 ft 454 kts 201°
2026-05-05 19:11 40.51043 10.67944 38993 ft 454 kts 201°
2026-05-05 19:11 40.44987 10.65552 38991 ft 454 kts 201°
2026-05-05 19:12 40.38932 10.63166 38994 ft 455 kts 201°
2026-05-05 19:12 40.32868 10.60780 39001 ft 455 kts 201°
2026-05-05 19:13 40.26802 10.58398 38993 ft 455 kts 201°
2026-05-05 19:13 40.20739 10.56023 39001 ft 454 kts 201°
2026-05-05 19:14 40.14492 10.54580 38996 ft 461 kts 186°
2026-05-05 19:14 40.08059 10.54585 38993 ft 464 kts 183°
2026-05-05 19:15 40.01607 10.54863 38995 ft 464 kts 182°
2026-05-05 19:15 39.95151 10.55162 38995 ft 465 kts 182°
2026-05-05 19:16 39.88691 10.55430 39001 ft 464 kts 183°
2026-05-05 19:16 39.82228 10.55679 38998 ft 464 kts 183°
2026-05-05 19:17 39.75771 10.55923 38985 ft 464 kts 183°
2026-05-05 19:17 39.69305 10.56168 39002 ft 465 kts 182°
2026-05-05 19:18 39.62845 10.56413 39003 ft 465 kts 182°
2026-05-05 19:18 39.56425 10.56657 39004 ft 464 kts 182°
2026-05-05 19:19 39.49961 10.56902 39004 ft 465 kts 182°
2026-05-05 19:19 39.43490 10.57146 39004 ft 465 kts 182°
2026-05-05 19:20 39.37021 10.57391 38993 ft 465 kts 182°
2026-05-05 19:20 39.30543 10.57635 39002 ft 466 kts 182°
2026-05-05 19:21 39.24050 10.57878 39005 ft 467 kts 182°
2026-05-05 19:21 39.17556 10.58122 39006 ft 467 kts 182°
2026-05-05 19:22 39.11066 10.58366 39008 ft 467 kts 182°
2026-05-05 19:22 39.04567 10.58608 39006 ft 468 kts 182°
2026-05-05 19:23 38.98055 10.58851 39007 ft 468 kts 182°
2026-05-05 19:23 38.91541 10.59094 39006 ft 468 kts 182°
2026-05-05 19:24 38.85029 10.59336 38997 ft 468 kts 182°
2026-05-05 19:24 38.78504 10.59578 39005 ft 469 kts 182°
2026-05-05 19:25 38.71978 10.59820 39007 ft 469 kts 182°
2026-05-05 19:25 38.65447 10.60061 39004 ft 469 kts 182°
2026-05-05 19:26 38.58913 10.60302 38999 ft 470 kts 182°
2026-05-05 19:26 38.52365 10.60543 39000 ft 471 kts 182°
2026-05-05 19:27 38.45813 10.60785 39009 ft 471 kts 182°
2026-05-05 19:27 38.39259 10.61025 39003 ft 471 kts 182°
2026-05-05 19:28 38.32697 10.61266 39002 ft 472 kts 182°
2026-05-05 19:28 38.26133 10.61506 39001 ft 472 kts 182°
2026-05-05 19:29 38.19570 10.61746 38997 ft 472 kts 182°
2026-05-05 19:29 38.13004 10.61985 38997 ft 473 kts 182°
2026-05-05 19:30 38.06422 10.62224 39001 ft 473 kts 182°
2026-05-05 19:30 37.99838 10.62463 39002 ft 473 kts 182°
2026-05-05 19:31 37.93252 10.62700 38995 ft 473 kts 182°
2026-05-05 19:31 37.86770 10.61894 38996 ft 465 kts 197°
2026-05-05 19:32 37.80541 10.59710 38996 ft 464 kts 200°
2026-05-05 19:32 37.74373 10.57289 39002 ft 464 kts 200°
2026-05-05 19:33 37.68212 10.54857 38991 ft 464 kts 200°
2026-05-05 19:33 37.62034 10.52453 38993 ft 465 kts 200°
2026-05-05 19:34 37.55849 10.50068 38993 ft 465 kts 200°
2026-05-05 19:35 37.46568 10.46503 38989 ft 465 kts 200°
2026-05-05 19:35 37.40378 10.44129 38994 ft 465 kts 200°
2026-05-05 19:36 37.34182 10.41755 38991 ft 465 kts 200°
2026-05-05 19:36 37.27986 10.39386 38993 ft 466 kts 200°
2026-05-05 19:37 37.21788 10.37021 38990 ft 466 kts 201°
2026-05-05 19:37 37.15587 10.34658 38989 ft 466 kts 201°
2026-05-05 19:38 37.09428 10.32315 38990 ft 466 kts 201°
2026-05-05 19:38 37.03222 10.29958 38979 ft 466 kts 201°
2026-05-05 19:39 36.97015 10.27605 38967 ft 466 kts 201°
2026-05-05 19:39 36.90806 10.25255 38969 ft 466 kts 201°
2026-05-05 19:40 36.84525 10.23175 38966 ft 471 kts 193°
2026-05-05 19:40 36.78013 10.22117 38952 ft 473 kts 191°
2026-05-05 19:41 36.71474 10.21263 38972 ft 473 kts 190°
2026-05-05 19:41 36.64929 10.20436 38978 ft 473 kts 191°
2026-05-05 19:42 36.58391 10.19594 38997 ft 471 kts 191°
2026-05-05 19:42 36.51878 10.18743 39000 ft 470 kts 191°
2026-05-05 19:43 36.45367 10.17890 39011 ft 470 kts 191°
2026-05-05 19:43 36.38866 10.17040 39009 ft 470 kts 191°
2026-05-05 19:44 36.32357 10.16191 39008 ft 470 kts 191°
2026-05-05 19:44 36.25855 10.15346 39012 ft 470 kts 191°
2026-05-05 19:45 36.19353 10.14501 39012 ft 470 kts 191°
2026-05-05 19:45 36.12850 10.13658 39009 ft 470 kts 191°
2026-05-05 19:46 36.06350 10.12826 38998 ft 470 kts 191°
2026-05-05 19:46 35.99844 10.11997 39007 ft 470 kts 191°
2026-05-05 19:47 35.93340 10.11167 39007 ft 470 kts 191°
2026-05-05 19:47 35.86837 10.10339 39004 ft 470 kts 191°
2026-05-05 19:48 35.80338 10.09516 38988 ft 470 kts 191°
2026-05-05 19:48 35.73823 10.08681 38999 ft 471 kts 191°
2026-05-05 19:49 35.67308 10.07847 38999 ft 471 kts 191°
2026-05-05 19:49 35.60787 10.07023 38999 ft 471 kts 191°
2026-05-05 19:50 35.54268 10.06197 39000 ft 471 kts 191°
2026-05-05 19:50 35.47750 10.05373 38998 ft 471 kts 191°
2026-05-05 19:51 35.42331 10.04689 38990 ft 471 kts 191°
2026-05-05 19:51 35.35811 10.03868 38990 ft 471 kts 191°
2026-05-05 19:52 35.29288 10.03051 38989 ft 471 kts 191°
2026-05-05 19:52 35.22761 10.02236 38988 ft 471 kts 191°
2026-05-05 19:53 35.16237 10.01424 38985 ft 471 kts 191°
2026-05-05 19:53 35.09711 10.00610 38988 ft 471 kts 191°
2026-05-05 19:54 35.03186 9.99793 38985 ft 471 kts 191°
2026-05-05 19:54 34.96670 9.98978 38985 ft 471 kts 191°
2026-05-05 19:55 34.90154 9.98165 38985 ft 471 kts 191°
2026-05-05 19:55 34.83637 9.97353 38962 ft 471 kts 191°
2026-05-05 19:56 34.77120 9.96543 38977 ft 471 kts 191°
2026-05-05 19:56 34.70636 9.95738 38977 ft 471 kts 191°
2026-05-05 19:57 34.64108 9.94929 38974 ft 472 kts 191°
2026-05-05 19:57 34.57582 9.94122 38959 ft 472 kts 191°
2026-05-05 19:58 34.51048 9.93315 38968 ft 472 kts 191°
2026-05-05 19:58 34.44514 9.92508 38970 ft 472 kts 191°
2026-05-05 19:59 34.37933 9.92043 38963 ft 476 kts 186°
2026-05-05 19:59 34.31307 9.91990 38950 ft 477 kts 186°
2026-05-05 20:00 34.24662 9.92005 38966 ft 478 kts 186°
2026-05-05 20:00 34.18014 9.92019 38960 ft 478 kts 186°
2026-05-05 20:01 34.11369 9.92024 38955 ft 477 kts 186°
2026-05-05 20:01 34.04725 9.92024 38943 ft 478 kts 186°
2026-05-05 20:02 33.98067 9.92021 38944 ft 479 kts 186°
2026-05-05 20:02 33.91406 9.92020 38943 ft 479 kts 186°
2026-05-05 20:03 33.84747 9.92020 38934 ft 479 kts 186°
2026-05-05 20:03 33.78085 9.92019 38930 ft 479 kts 186°
2026-05-05 20:04 33.71528 9.91320 38939 ft 467 kts 199°
2026-05-05 20:04 33.65248 9.89419 38938 ft 465 kts 201°
2026-05-05 20:05 33.59026 9.87311 38936 ft 465 kts 202°
2026-05-05 20:05 33.52807 9.85187 38925 ft 465 kts 202°
2026-05-05 20:06 33.46581 9.83089 38933 ft 465 kts 202°
2026-05-05 20:06 33.40397 9.81022 38908 ft 465 kts 202°
2026-05-05 20:07 33.34168 9.78947 38900 ft 465 kts 202°
2026-05-05 20:07 33.27940 9.76875 38883 ft 465 kts 202°
2026-05-05 20:08 33.21708 9.74804 38895 ft 465 kts 202°
2026-05-05 20:08 33.15477 9.72735 38894 ft 465 kts 202°
2026-05-05 20:09 33.09244 9.70669 38894 ft 465 kts 202°
2026-05-05 20:09 33.03013 9.68606 38900 ft 465 kts 202°
2026-05-05 20:10 32.96778 9.66545 38880 ft 465 kts 202°
2026-05-05 20:10 32.90540 9.64487 38893 ft 465 kts 202°
2026-05-05 20:11 32.84305 9.62431 38873 ft 465 kts 202°
2026-05-05 20:11 32.78072 9.60380 38864 ft 465 kts 203°
2026-05-05 20:12 32.71842 9.58334 38872 ft 464 kts 202°
2026-05-05 20:12 32.65659 9.56305 38870 ft 464 kts 202°
2026-05-05 20:13 32.59435 9.54265 38873 ft 464 kts 203°
2026-05-05 20:13 32.53208 9.52228 38858 ft 464 kts 202°
2026-05-05 20:14 32.46976 9.50191 38856 ft 466 kts 203°
2026-05-05 20:14 32.40713 9.48147 38854 ft 467 kts 203°
2026-05-05 20:15 32.34445 9.46106 38845 ft 467 kts 203°
2026-05-05 20:15 32.28171 9.44065 38851 ft 468 kts 203°
2026-05-05 20:16 32.21883 9.42023 38846 ft 469 kts 203°
2026-05-05 20:16 32.15598 9.39986 38843 ft 468 kts 203°
2026-05-05 20:17 32.09313 9.37950 38836 ft 468 kts 203°
2026-05-05 20:17 32.03073 9.35931 38834 ft 468 kts 203°
2026-05-05 20:18 31.96781 9.33900 38833 ft 469 kts 204°
2026-05-05 20:18 31.90499 9.31874 38832 ft 468 kts 204°
2026-05-05 20:19 31.84218 9.29852 38831 ft 468 kts 204°
2026-05-05 20:19 31.77931 9.27832 38833 ft 468 kts 204°
2026-05-05 20:20 31.71708 9.25680 38820 ft 461 kts 210°
2026-05-05 20:20 31.66061 9.22365 38823 ft 451 kts 218°
2026-05-05 20:21 31.60653 9.18657 38820 ft 450 kts 219°
2026-05-05 20:21 31.55280 9.14891 38818 ft 450 kts 219°
2026-05-05 20:22 31.49902 9.11142 38821 ft 450 kts 219°
2026-05-05 20:22 31.44510 9.07411 38823 ft 451 kts 219°
2026-05-05 20:23 31.39106 9.03684 38813 ft 451 kts 219°
2026-05-05 20:23 31.33702 8.99963 38819 ft 451 kts 219°
2026-05-05 20:24 31.28299 8.96246 38808 ft 451 kts 219°
2026-05-05 20:24 31.22889 8.92529 38809 ft 451 kts 219°
2026-05-05 20:25 31.17482 8.88819 38800 ft 451 kts 219°
2026-05-05 20:25 31.12074 8.85115 38807 ft 451 kts 219°
2026-05-05 20:26 31.06665 8.81414 38809 ft 451 kts 219°
2026-05-05 20:26 31.01253 8.77715 38805 ft 451 kts 219°
2026-05-05 20:27 30.95879 8.74048 38808 ft 451 kts 219°
2026-05-05 20:27 30.90468 8.70360 38800 ft 450 kts 219°
2026-05-05 20:28 30.85069 8.66686 38801 ft 449 kts 219°
2026-05-05 20:28 30.79675 8.63019 38795 ft 449 kts 219°
2026-05-05 20:29 30.74281 8.59356 38793 ft 449 kts 219°
2026-05-05 20:29 30.68879 8.55694 38793 ft 450 kts 219°
2026-05-05 20:30 30.63476 8.52034 38807 ft 450 kts 219°
2026-05-05 20:30 30.58070 8.48381 38783 ft 450 kts 219°
2026-05-05 20:31 30.52657 8.44727 38788 ft 450 kts 219°
2026-05-05 20:31 30.47244 8.41075 38788 ft 450 kts 219°
2026-05-05 20:32 30.41848 8.37410 38803 ft 450 kts 219°
2026-05-05 20:32 30.36456 8.33735 38800 ft 449 kts 219°
2026-05-05 20:33 30.31091 8.30091 38783 ft 445 kts 219°
2026-05-05 20:33 30.25759 8.26471 38782 ft 444 kts 219°
2026-05-05 20:34 30.20422 8.22853 38777 ft 444 kts 219°
2026-05-05 20:34 30.15090 8.19240 38770 ft 445 kts 219°
2026-05-05 20:35 30.09514 8.15996 38777 ft 459 kts 209°
2026-05-05 20:35 30.06411 8.14974 38771 ft 470 kts 201°
2026-05-05 20:35 30.03126 8.14510 38775 ft 483 kts 192°
2026-05-05 20:35 29.99728 8.14687 38773 ft 496 kts 181°
2026-05-05 20:36 29.96299 8.15333 38767 ft 501 kts 179°
2026-05-05 20:36 29.89438 8.16981 38775 ft 505 kts 177°
2026-05-05 20:37 29.82572 8.18709 38765 ft 505 kts 177°
2026-05-05 20:37 29.75702 8.20382 38778 ft 505 kts 177°
2026-05-05 20:38 29.68826 8.22015 38776 ft 504 kts 178°
2026-05-05 20:38 29.61947 8.23634 38774 ft 504 kts 178°
2026-05-05 20:39 29.55122 8.25240 38768 ft 504 kts 178°
2026-05-05 20:39 29.48247 8.26857 38780 ft 505 kts 177°
2026-05-05 20:40 29.41365 8.28475 38781 ft 505 kts 178°
2026-05-05 20:40 29.35604 8.29827 38779 ft 504 kts 177°
2026-05-05 20:41 29.28727 8.31440 38778 ft 504 kts 178°
2026-05-05 20:41 29.21846 8.33051 38781 ft 505 kts 177°
2026-05-05 20:42 29.14955 8.34662 38787 ft 505 kts 177°
2026-05-05 20:42 29.08118 8.36260 38800 ft 505 kts 177°
2026-05-05 20:43 29.01240 8.37865 38798 ft 505 kts 177°
2026-05-05 20:43 28.94356 8.39467 38799 ft 505 kts 177°
2026-05-05 20:44 28.87476 8.41068 38799 ft 505 kts 177°
2026-05-05 20:44 28.80590 8.42667 38804 ft 505 kts 177°
2026-05-05 20:45 28.70265 8.45061 38806 ft 505 kts 177°
2026-05-05 20:45 28.63377 8.46655 38808 ft 505 kts 177°
2026-05-05 20:46 28.56492 8.48247 38809 ft 505 kts 177°
2026-05-05 20:46 28.49601 8.49838 38809 ft 505 kts 177°
2026-05-05 20:47 28.42712 8.51427 38813 ft 505 kts 177°
2026-05-05 20:47 28.35831 8.53011 38809 ft 505 kts 177°
2026-05-05 20:48 28.28942 8.54595 38810 ft 505 kts 177°
2026-05-05 20:48 28.22060 8.56175 38810 ft 505 kts 177°
2026-05-05 20:49 28.15179 8.57753 38810 ft 505 kts 177°
2026-05-05 20:49 28.08301 8.59328 38797 ft 504 kts 177°
2026-05-05 20:50 28.01421 8.60918 38809 ft 504 kts 176°
2026-05-05 20:50 27.94546 8.62515 38809 ft 504 kts 176°
2026-05-05 20:51 27.87669 8.64107 38813 ft 504 kts 176°
2026-05-05 20:51 27.80797 8.65695 38813 ft 504 kts 176°
2026-05-05 20:52 27.73970 8.67269 38807 ft 504 kts 176°
2026-05-05 20:52 27.67098 8.68851 38808 ft 504 kts 176°
2026-05-05 20:53 27.60226 8.70432 38811 ft 504 kts 176°
2026-05-05 20:53 27.53358 8.72009 38812 ft 504 kts 176°
2026-05-05 20:54 27.46490 8.73585 38817 ft 504 kts 176°
2026-05-05 20:54 27.39621 8.75158 38814 ft 504 kts 176°
2026-05-05 20:55 27.32755 8.76729 38813 ft 504 kts 176°
2026-05-05 20:55 27.25883 8.78299 38818 ft 504 kts 176°
2026-05-05 20:56 27.19010 8.79868 38803 ft 504 kts 176°
2026-05-05 20:56 27.12156 8.81432 38820 ft 502 kts 176°
2026-05-05 20:57 27.05317 8.82989 38824 ft 501 kts 176°
2026-05-05 20:57 26.98479 8.84544 38829 ft 501 kts 176°
2026-05-05 20:58 26.91649 8.86110 38834 ft 501 kts 176°
2026-05-05 20:58 26.84817 8.87675 38835 ft 501 kts 176°
2026-05-05 20:59 26.77990 8.89237 38839 ft 501 kts 176°
2026-05-05 20:59 26.71166 8.90796 38829 ft 501 kts 176°
2026-05-05 21:00 26.64384 8.92343 38834 ft 501 kts 176°
2026-05-05 21:00 26.57560 8.93898 38835 ft 501 kts 176°
2026-05-05 21:01 26.50666 8.95465 38841 ft 503 kts 176°
2026-05-05 21:01 26.43856 8.97014 38851 ft 503 kts 176°
2026-05-05 21:02 26.36951 8.98583 38851 ft 503 kts 176°
2026-05-05 21:02 26.30138 9.00128 38859 ft 503 kts 176°
2026-05-05 21:03 26.23278 9.01680 38857 ft 503 kts 175°
2026-05-05 21:03 26.16420 9.03232 38867 ft 503 kts 175°
2026-05-05 21:04 26.09561 9.04783 38870 ft 503 kts 175°
2026-05-05 21:04 26.02700 9.06331 38876 ft 503 kts 175°
2026-05-05 21:05 25.95845 9.07878 38860 ft 503 kts 175°
2026-05-05 21:05 25.88988 9.09438 38882 ft 503 kts 175°
2026-05-05 21:06 25.82133 9.10997 38882 ft 503 kts 175°
2026-05-05 21:06 25.75281 9.12552 38882 ft 503 kts 175°
2026-05-05 21:07 25.68428 9.14103 38888 ft 503 kts 176°
2026-05-05 21:07 25.61563 9.15654 38892 ft 505 kts 175°
2026-05-05 21:08 25.54660 9.17211 38897 ft 507 kts 175°
2026-05-05 21:08 25.47739 9.18773 38898 ft 507 kts 175°
2026-05-05 21:09 25.40823 9.20334 38914 ft 507 kts 175°
2026-05-05 21:09 25.33902 9.21891 38901 ft 507 kts 174°
2026-05-05 21:10 25.26989 9.23444 38931 ft 507 kts 174°
2026-05-05 21:10 25.20082 9.24995 38931 ft 507 kts 174°
2026-05-05 21:11 25.13170 9.26546 38930 ft 507 kts 174°
2026-05-05 21:11 25.06260 9.28094 38935 ft 507 kts 174°
2026-05-05 21:12 24.99354 9.29639 38931 ft 506 kts 174°
2026-05-05 21:12 24.92466 9.31179 38934 ft 505 kts 174°
2026-05-05 21:13 24.85580 9.32715 38934 ft 505 kts 174°
2026-05-05 21:13 24.78745 9.34238 38925 ft 505 kts 174°
2026-05-05 21:14 24.71817 9.35782 38912 ft 505 kts 174°
2026-05-05 21:14 24.64986 9.37302 38914 ft 504 kts 174°
2026-05-05 21:15 24.58105 9.38832 38943 ft 504 kts 174°
2026-05-05 21:15 24.51228 9.40358 38957 ft 504 kts 174°
2026-05-05 21:16 24.44354 9.41882 38969 ft 504 kts 174°
2026-05-05 21:16 24.37479 9.43405 38989 ft 504 kts 174°
2026-05-05 21:17 24.30613 9.45068 38996 ft 509 kts 168°
2026-05-05 21:17 24.24096 9.48293 38994 ft 519 kts 156°
2026-05-05 21:18 24.17804 9.52246 38986 ft 522 kts 154°
2026-05-05 21:18 24.11554 9.56314 38957 ft 523 kts 154°
2026-05-05 21:19 24.05295 9.60362 38928 ft 523 kts 154°
2026-05-05 21:19 23.99022 9.64382 38898 ft 523 kts 154°
2026-05-05 21:20 23.92741 9.68389 38887 ft 523 kts 154°
2026-05-05 21:20 23.86458 9.72392 38905 ft 523 kts 154°
2026-05-05 21:21 23.80178 9.76391 38878 ft 522 kts 154°
2026-05-05 21:21 23.73897 9.80386 38886 ft 522 kts 154°
2026-05-05 21:22 23.67621 9.84375 38870 ft 522 kts 154°
2026-05-05 21:22 23.61328 9.88367 38888 ft 524 kts 154°
2026-05-05 21:23 23.55014 9.92369 38879 ft 525 kts 154°
2026-05-05 21:23 23.48703 9.96366 38864 ft 525 kts 154°
2026-05-05 21:24 23.42388 10.00360 38861 ft 525 kts 154°
2026-05-05 21:24 23.36055 10.04360 38871 ft 528 kts 154°
2026-05-05 21:25 23.29696 10.08373 38871 ft 529 kts 154°
2026-05-05 21:25 23.24409 10.11707 38864 ft 529 kts 154°
2026-05-05 21:26 23.18045 10.15716 38868 ft 528 kts 154°
2026-05-05 21:26 23.11682 10.19719 38865 ft 528 kts 154°
2026-05-05 21:27 23.05330 10.23712 38862 ft 526 kts 154°
2026-05-05 21:27 22.99007 10.27682 38860 ft 525 kts 154°
2026-05-05 21:28 22.92685 10.31645 38863 ft 525 kts 154°
2026-05-05 21:28 22.86364 10.35604 38861 ft 525 kts 154°
2026-05-05 21:29 22.80044 10.39558 38861 ft 525 kts 154°
2026-05-05 21:29 22.73719 10.43511 38855 ft 526 kts 155°
2026-05-05 21:30 22.67367 10.47475 38862 ft 528 kts 155°
2026-05-05 21:30 22.61009 10.51461 38859 ft 529 kts 154°
2026-05-05 21:31 22.54780 10.55623 38859 ft 530 kts 152°
2026-05-05 21:31 22.48546 10.59870 38853 ft 529 kts 152°
2026-05-05 21:32 22.42317 10.64077 38843 ft 528 kts 152°
2026-05-05 21:32 22.36061 10.68266 38854 ft 530 kts 153°
2026-05-05 21:33 22.29778 10.72460 38857 ft 531 kts 153°
2026-05-05 21:33 22.23496 10.76650 38857 ft 531 kts 153°
2026-05-05 21:34 22.17215 10.80837 38849 ft 531 kts 153°
2026-05-05 21:34 22.10928 10.85023 38848 ft 531 kts 153°
2026-05-05 21:35 22.04644 10.89203 38844 ft 530 kts 153°
2026-05-05 21:35 21.98368 10.93373 38845 ft 530 kts 153°
2026-05-05 21:36 21.92094 10.97537 38845 ft 530 kts 153°
2026-05-05 21:36 21.85819 11.01698 38845 ft 530 kts 153°
2026-05-05 21:37 21.79546 11.05852 38845 ft 529 kts 153°
2026-05-05 21:37 21.73272 11.10003 38846 ft 529 kts 153°
2026-05-05 21:38 21.67001 11.14149 38844 ft 529 kts 153°
2026-05-05 21:38 21.60735 11.18286 38843 ft 528 kts 153°
2026-05-05 21:39 21.54468 11.22419 38843 ft 528 kts 153°
2026-05-05 21:39 21.48206 11.26545 38844 ft 528 kts 153°
2026-05-05 21:40 21.41939 11.30671 38838 ft 528 kts 152°
2026-05-05 21:40 21.35672 11.34790 38843 ft 529 kts 152°
2026-05-05 21:41 21.29401 11.38910 38844 ft 528 kts 152°
2026-05-05 21:41 21.23172 11.42999 38842 ft 528 kts 152°
2026-05-05 21:42 21.16901 11.47109 38842 ft 529 kts 152°
2026-05-05 21:42 21.10627 11.51219 38840 ft 529 kts 152°
2026-05-05 21:43 21.04354 11.55325 38841 ft 529 kts 152°
2026-05-05 21:43 20.98076 11.59429 38836 ft 529 kts 152°
2026-05-05 21:44 20.91799 11.63529 38839 ft 529 kts 152°
2026-05-05 21:44 20.85521 11.67625 38840 ft 529 kts 152°
2026-05-05 21:45 20.79258 11.71708 38839 ft 527 kts 152°
2026-05-05 21:45 20.73002 11.75782 38828 ft 526 kts 152°
2026-05-05 21:46 20.66749 11.79849 38836 ft 527 kts 152°
2026-05-05 21:46 20.60491 11.83916 38849 ft 527 kts 152°
2026-05-05 21:47 20.54231 11.87985 38835 ft 527 kts 152°
2026-05-05 21:47 20.47969 11.92046 38853 ft 527 kts 152°
2026-05-05 21:48 20.41707 11.96099 38840 ft 527 kts 152°
2026-05-05 21:48 20.35443 12.00150 38842 ft 525 kts 152°
2026-05-05 21:49 20.29201 12.04186 38843 ft 524 kts 152°
2026-05-05 21:49 20.22979 12.08204 38839 ft 522 kts 152°
2026-05-05 21:50 20.16769 12.12211 38839 ft 522 kts 152°
2026-05-05 21:50 20.10563 12.16211 38842 ft 522 kts 152°
2026-05-05 21:51 20.04352 12.20210 38832 ft 522 kts 152°
2026-05-05 21:51 19.98178 12.24183 38842 ft 523 kts 152°
2026-05-05 21:52 19.88832 12.30189 38837 ft 523 kts 152°
2026-05-05 21:53 19.82599 12.34191 38840 ft 523 kts 152°
2026-05-05 21:53 19.76362 12.38190 38842 ft 524 kts 152°
2026-05-05 21:54 19.70129 12.42184 38835 ft 523 kts 153°
2026-05-05 21:54 19.63918 12.46162 38838 ft 519 kts 153°
2026-05-05 21:55 19.57740 12.50113 38846 ft 518 kts 153°
2026-05-05 21:55 19.51568 12.54055 38845 ft 518 kts 153°
2026-05-05 21:56 19.45391 12.57998 38847 ft 518 kts 153°
2026-05-05 21:56 19.39218 12.61936 38849 ft 518 kts 153°
2026-05-05 21:57 19.33041 12.65872 38841 ft 518 kts 152°
2026-05-05 21:57 19.26885 12.69792 38848 ft 516 kts 152°
2026-05-05 21:58 19.20729 12.73708 38851 ft 516 kts 152°
2026-05-05 21:58 19.14576 12.77618 38851 ft 516 kts 152°
2026-05-05 21:59 19.08420 12.81527 38853 ft 517 kts 152°
2026-05-05 21:59 19.02256 12.85437 38854 ft 517 kts 152°
2026-05-05 22:00 18.95889 12.88695 38854 ft 508 kts 165°
2026-05-05 22:00 18.89150 12.91057 38858 ft 506 kts 167°
2026-05-05 22:01 18.82467 12.93221 38853 ft 506 kts 167°
2026-05-05 22:01 18.75738 12.95386 38853 ft 505 kts 167°
2026-05-05 22:02 18.69017 12.97566 38852 ft 506 kts 167°
2026-05-05 22:02 18.62301 12.99756 38855 ft 504 kts 167°
2026-05-05 22:03 18.55627 13.01934 38855 ft 501 kts 167°
2026-05-05 22:03 18.48964 13.04104 38856 ft 501 kts 167°
2026-05-05 22:04 18.42299 13.06272 38864 ft 501 kts 167°
2026-05-05 22:04 18.35639 13.08437 38858 ft 501 kts 167°
2026-05-05 22:05 18.28976 13.10601 38864 ft 501 kts 166°
2026-05-05 22:05 18.22329 13.12759 38863 ft 500 kts 166°
2026-05-05 22:06 18.15692 13.14912 38862 ft 498 kts 167°
2026-05-05 22:06 18.09073 13.17057 38862 ft 497 kts 167°
2026-05-05 22:07 18.02457 13.19199 38862 ft 497 kts 167°
2026-05-05 22:07 17.95845 13.21338 38855 ft 497 kts 166°
2026-05-05 22:08 17.89245 13.23471 38865 ft 496 kts 166°
2026-05-05 22:08 17.82654 13.25601 38865 ft 496 kts 166°
2026-05-05 22:09 17.76063 13.27729 38865 ft 496 kts 166°
2026-05-05 22:09 17.69473 13.29854 38864 ft 495 kts 166°
2026-05-05 22:10 17.62926 13.31964 38864 ft 495 kts 166°
2026-05-05 22:10 17.56334 13.34087 38864 ft 495 kts 166°
2026-05-05 22:11 17.49748 13.36207 38868 ft 495 kts 166°
2026-05-05 22:11 17.43155 13.38327 38868 ft 495 kts 166°
2026-05-05 22:12 17.36566 13.40444 38867 ft 495 kts 166°
2026-05-05 22:12 17.29978 13.42559 38866 ft 495 kts 166°
2026-05-05 22:13 17.23372 13.44677 38867 ft 499 kts 166°
2026-05-05 22:13 17.17834 13.46452 38866 ft 501 kts 166°
2026-05-05 22:14 17.11165 13.48590 38862 ft 502 kts 166°
2026-05-05 22:14 17.04487 13.50728 38867 ft 502 kts 166°
2026-05-05 22:15 16.97813 13.52864 38864 ft 502 kts 166°
2026-05-05 22:15 16.91133 13.54999 38860 ft 502 kts 166°
2026-05-05 22:16 16.84451 13.57134 38860 ft 502 kts 166°
2026-05-05 22:16 16.77771 13.59266 38860 ft 502 kts 166°
2026-05-05 22:17 16.71088 13.61398 38852 ft 502 kts 166°
2026-05-05 22:17 16.64405 13.63528 38855 ft 502 kts 166°
2026-05-05 22:18 16.57723 13.65656 38851 ft 502 kts 166°
2026-05-05 22:18 16.51049 13.67785 38853 ft 501 kts 166°
2026-05-05 22:19 16.44383 13.69903 38848 ft 501 kts 166°
2026-05-05 22:19 16.37716 13.72019 38848 ft 501 kts 166°
2026-05-05 22:20 16.31055 13.74134 38845 ft 501 kts 166°
2026-05-05 22:20 16.24387 13.76249 38833 ft 501 kts 167°
2026-05-05 22:21 16.17712 13.78366 38845 ft 502 kts 167°
2026-05-05 22:21 16.11026 13.80484 38845 ft 502 kts 167°
2026-05-05 22:22 16.04339 13.82602 38845 ft 502 kts 167°
2026-05-05 22:22 15.97649 13.84719 38845 ft 502 kts 167°
2026-05-05 22:23 15.90964 13.86834 38845 ft 502 kts 167°
2026-05-05 22:23 15.84330 13.88931 38840 ft 501 kts 167°
2026-05-05 22:24 15.77662 13.91036 38839 ft 501 kts 167°
2026-05-05 22:24 15.70996 13.93139 38839 ft 501 kts 167°
2026-05-05 22:25 15.64327 13.95242 38839 ft 501 kts 167°
2026-05-05 22:25 15.57660 13.97343 38839 ft 501 kts 167°
2026-05-05 22:26 15.52122 13.99087 38832 ft 501 kts 167°
2026-05-05 22:26 15.44392 14.01519 38835 ft 503 kts 167°
2026-05-05 22:27 15.37697 14.03625 38834 ft 503 kts 167°
2026-05-05 22:27 15.30993 14.05732 38833 ft 503 kts 167°
2026-05-05 22:28 15.24290 14.07837 38831 ft 503 kts 167°
2026-05-05 22:28 15.17592 14.09940 38824 ft 503 kts 167°
2026-05-05 22:29 15.10874 14.12046 38831 ft 505 kts 167°
2026-05-05 22:29 15.04143 14.14156 38826 ft 505 kts 167°
2026-05-05 22:30 14.97417 14.16263 38824 ft 505 kts 167°
2026-05-05 22:30 14.90685 14.18371 38824 ft 505 kts 167°
2026-05-05 22:31 14.83954 14.20477 38808 ft 505 kts 167°
2026-05-05 22:31 14.77224 14.22581 38823 ft 505 kts 167°
2026-05-05 22:32 14.70505 14.24680 38823 ft 504 kts 167°
2026-05-05 22:32 14.63836 14.26763 38823 ft 504 kts 167°
2026-05-05 22:33 14.57124 14.28856 38816 ft 504 kts 167°
2026-05-05 22:33 14.50408 14.30950 38818 ft 504 kts 167°
2026-05-05 22:34 14.43698 14.33042 38813 ft 504 kts 167°
2026-05-05 22:34 14.36977 14.35137 38973 ft 505 kts 167°
2026-05-05 22:34 14.33622 14.36183 39186 ft 503 kts 167°
2026-05-05 22:35 14.30280 14.37223 39402 ft 501 kts 167°
2026-05-05 22:35 14.26944 14.38261 39613 ft 500 kts 167°
2026-05-05 22:35 14.23621 14.39294 39786 ft 499 kts 167°
2026-05-05 22:35 14.20300 14.40325 39962 ft 498 kts 167°
2026-05-05 22:36 14.16986 14.41355 40113 ft 497 kts 167°
2026-05-05 22:36 14.13677 14.42382 40271 ft 496 kts 167°
2026-05-05 22:36 14.10375 14.43408 40417 ft 495 kts 168°
2026-05-05 22:36 14.07080 14.44431 40574 ft 495 kts 168°
2026-05-05 22:37 14.03783 14.45455 40716 ft 494 kts 168°
2026-05-05 22:37 13.97198 14.47497 40810 ft 495 kts 168°
2026-05-05 22:38 13.90603 14.49542 40807 ft 495 kts 168°
2026-05-05 22:38 13.84014 14.51584 40807 ft 495 kts 168°
2026-05-05 22:39 13.77421 14.53626 40781 ft 495 kts 168°
2026-05-05 22:39 13.70823 14.55669 40799 ft 495 kts 168°
2026-05-05 22:40 13.64222 14.57711 40799 ft 496 kts 168°
2026-05-05 22:40 13.57620 14.59752 40793 ft 495 kts 168°
2026-05-05 22:41 13.51015 14.61793 40796 ft 496 kts 168°
2026-05-05 22:41 13.44413 14.63833 40788 ft 495 kts 168°
2026-05-05 22:42 13.37812 14.65870 40786 ft 496 kts 168°
2026-05-05 22:42 13.31202 14.67909 40785 ft 496 kts 168°
2026-05-05 22:43 13.24590 14.69947 40782 ft 496 kts 168°
2026-05-05 22:43 13.17981 14.71984 40779 ft 496 kts 168°
2026-05-05 22:44 13.11370 14.74020 40780 ft 496 kts 168°
2026-05-05 22:44 13.04803 14.76041 40771 ft 496 kts 168°
2026-05-05 22:45 12.98195 14.78074 40778 ft 496 kts 168°
2026-05-05 22:45 12.91589 14.80105 40773 ft 495 kts 168°
2026-05-05 22:46 12.84985 14.82134 40774 ft 495 kts 168°
2026-05-05 22:46 12.78379 14.84163 40774 ft 496 kts 168°
2026-05-05 22:47 12.71773 14.86190 40768 ft 496 kts 168°
2026-05-05 22:47 12.65169 14.88216 40778 ft 495 kts 168°
2026-05-05 22:48 12.58565 14.90241 40778 ft 496 kts 168°
2026-05-05 22:48 12.51958 14.92266 40775 ft 496 kts 168°
2026-05-05 22:49 12.45366 14.94285 40764 ft 495 kts 168°
2026-05-05 22:49 12.38751 14.96310 40765 ft 495 kts 168°
2026-05-05 22:50 12.32146 14.98331 40772 ft 495 kts 167°
2026-05-05 22:50 12.25540 15.00351 40773 ft 496 kts 167°
2026-05-05 22:51 12.18932 15.02371 40766 ft 496 kts 167°
2026-05-05 22:51 12.12318 15.04386 40778 ft 496 kts 168°
2026-05-05 22:52 12.05677 15.06249 40776 ft 495 kts 169°
2026-05-05 22:52 11.99018 15.08047 40764 ft 495 kts 169°
2026-05-05 22:53 11.92376 15.09859 40789 ft 493 kts 169°
2026-05-05 22:53 11.85747 15.11687 40788 ft 493 kts 169°
2026-05-05 22:54 11.79127 15.13517 40775 ft 493 kts 169°
2026-05-05 22:54 11.72545 15.15335 40786 ft 493 kts 169°
2026-05-05 22:55 11.65919 15.17165 40784 ft 493 kts 169°
2026-05-05 22:55 11.59294 15.18992 40775 ft 493 kts 169°
2026-05-05 22:56 11.52672 15.20818 40784 ft 493 kts 169°
2026-05-05 22:56 11.46050 15.22643 40781 ft 493 kts 169°
2026-05-05 22:57 11.39430 15.24467 40784 ft 493 kts 169°
2026-05-05 22:57 11.32807 15.26290 40778 ft 493 kts 169°
2026-05-05 22:58 11.26182 15.28113 40772 ft 493 kts 169°
2026-05-05 22:58 11.19543 15.29938 40779 ft 495 kts 169°
2026-05-05 22:59 11.12887 15.31768 40783 ft 495 kts 169°
2026-05-05 22:59 11.06233 15.33598 40783 ft 495 kts 169°
2026-05-05 23:00 10.96250 15.36339 40788 ft 495 kts 169°
2026-05-05 23:00 10.89592 15.38167 40778 ft 495 kts 169°
2026-05-05 23:01 10.82938 15.39992 40784 ft 495 kts 169°
2026-05-05 23:01 10.76286 15.41816 40784 ft 495 kts 169°
2026-05-05 23:02 10.69676 15.43628 40785 ft 495 kts 169°
2026-05-05 23:02 10.63024 15.45451 40786 ft 495 kts 169°
2026-05-05 23:03 10.56369 15.47274 40787 ft 495 kts 169°
2026-05-05 23:03 10.49721 15.49093 40788 ft 495 kts 169°
2026-05-05 23:04 10.43068 15.50914 40788 ft 495 kts 169°
2026-05-05 23:04 10.36412 15.52734 40788 ft 495 kts 169°
2026-05-05 23:05 10.30885 15.54245 40788 ft 495 kts 169°
2026-05-05 23:05 10.24232 15.56063 40788 ft 495 kts 169°
2026-05-05 23:06 10.17584 15.57879 40786 ft 495 kts 168°
2026-05-05 23:06 10.10922 15.59696 40791 ft 496 kts 168°
2026-05-05 23:07 10.04254 15.61514 40789 ft 496 kts 168°
2026-05-05 23:07 9.97591 15.63328 40790 ft 496 kts 168°
2026-05-05 23:08 9.90923 15.65143 40791 ft 496 kts 168°
2026-05-05 23:08 9.84255 15.66958 40793 ft 496 kts 168°
2026-05-05 23:09 9.77589 15.68771 40791 ft 495 kts 167°
2026-05-05 23:09 9.70943 15.70579 40801 ft 495 kts 167°
2026-05-05 23:10 9.64295 15.72386 40795 ft 494 kts 167°
2026-05-05 23:10 9.57651 15.74192 40801 ft 494 kts 167°
2026-05-05 23:11 9.51002 15.75997 40800 ft 494 kts 167°
2026-05-05 23:11 9.44359 15.77801 40803 ft 494 kts 167°
2026-05-05 23:12 9.37722 15.79606 40804 ft 494 kts 167°
2026-05-05 23:12 9.31092 15.81408 40809 ft 493 kts 167°
2026-05-05 23:13 9.24456 15.83208 40812 ft 493 kts 167°
2026-05-05 23:13 9.17826 15.85008 40814 ft 493 kts 167°
2026-05-05 23:14 9.11192 15.86808 40814 ft 494 kts 167°
2026-05-05 23:14 9.04560 15.88606 40815 ft 493 kts 167°
2026-05-05 23:15 8.97931 15.90404 40817 ft 493 kts 167°
2026-05-05 23:15 8.91296 15.92203 40819 ft 493 kts 167°
2026-05-05 23:16 8.84665 15.94000 40821 ft 493 kts 167°
2026-05-05 23:16 8.78079 15.95784 40820 ft 493 kts 167°
2026-05-05 23:17 8.71449 15.97579 40821 ft 492 kts 166°
2026-05-05 23:17 8.64850 15.99365 40822 ft 490 kts 166°
2026-05-05 23:18 8.58267 16.01147 40821 ft 490 kts 166°
2026-05-05 23:18 8.51681 16.02928 40824 ft 490 kts 166°
2026-05-05 23:19 8.45101 16.04707 40830 ft 490 kts 166°
2026-05-05 23:19 8.38516 16.06487 40829 ft 490 kts 167°
2026-05-05 23:20 8.31935 16.08265 40828 ft 490 kts 166°
2026-05-05 23:20 8.25354 16.10042 40834 ft 490 kts 166°
2026-05-05 23:21 8.18771 16.11820 40830 ft 490 kts 166°
2026-05-05 23:21 8.12189 16.13596 40835 ft 490 kts 166°
2026-05-05 23:22 8.05606 16.15373 40833 ft 490 kts 166°
2026-05-05 23:22 7.99026 16.17147 40842 ft 489 kts 166°
2026-05-05 23:23 7.92457 16.18917 40841 ft 488 kts 166°
2026-05-05 23:23 7.85897 16.20684 40849 ft 488 kts 166°
2026-05-05 23:24 7.79337 16.22450 40846 ft 488 kts 166°
2026-05-05 23:24 7.72775 16.24216 40848 ft 488 kts 166°
2026-05-05 23:25 7.66261 16.25969 40856 ft 488 kts 166°
2026-05-05 23:25 7.59696 16.27734 40855 ft 488 kts 166°
2026-05-05 23:26 7.53133 16.29499 40864 ft 488 kts 166°
2026-05-05 23:26 7.46564 16.31266 40863 ft 488 kts 166°
2026-05-05 23:27 7.39996 16.33031 40872 ft 488 kts 166°
2026-05-05 23:27 7.33428 16.34795 40873 ft 488 kts 166°
2026-05-05 23:28 7.26858 16.36559 40879 ft 489 kts 165°
2026-05-05 23:28 7.20288 16.38323 40880 ft 488 kts 165°
2026-05-05 23:29 7.13722 16.40086 40881 ft 488 kts 165°
2026-05-05 23:29 7.07161 16.41847 40882 ft 488 kts 165°
2026-05-05 23:30 7.00598 16.43607 40882 ft 488 kts 165°
2026-05-05 23:30 6.94029 16.45369 40892 ft 488 kts 165°
2026-05-05 23:31 6.87466 16.47128 40889 ft 488 kts 165°
2026-05-05 23:31 6.80904 16.48887 40896 ft 488 kts 165°
2026-05-05 23:32 6.74337 16.50647 40895 ft 488 kts 165°
2026-05-05 23:32 6.67778 16.52404 40899 ft 488 kts 165°
2026-05-05 23:33 6.61217 16.54161 40900 ft 488 kts 165°
2026-05-05 23:33 6.54694 16.55907 40907 ft 488 kts 165°
2026-05-05 23:34 6.48147 16.57659 40906 ft 486 kts 165°
2026-05-05 23:34 6.41613 16.59408 40906 ft 486 kts 165°
2026-05-05 23:35 6.35077 16.61156 40911 ft 486 kts 165°
2026-05-05 23:35 6.28545 16.62903 40910 ft 486 kts 165°
2026-05-05 23:36 6.22011 16.64650 40909 ft 486 kts 165°
2026-05-05 23:36 6.15483 16.66393 40908 ft 484 kts 165°
2026-05-05 23:37 6.08985 16.68130 40914 ft 483 kts 165°
2026-05-05 23:37 6.02495 16.69867 40914 ft 483 kts 165°
2026-05-05 23:38 5.95995 16.71605 40920 ft 483 kts 165°
2026-05-05 23:38 5.89501 16.73340 40919 ft 483 kts 165°
2026-05-05 23:39 5.83004 16.75076 40920 ft 483 kts 165°
2026-05-05 23:39 5.76494 16.76813 40922 ft 484 kts 165°
2026-05-05 23:40 5.70026 16.78540 40921 ft 484 kts 164°
2026-05-05 23:40 5.63510 16.80280 40924 ft 484 kts 164°
2026-05-05 23:41 5.56996 16.82018 40926 ft 485 kts 164°
2026-05-05 23:41 5.50480 16.83756 40929 ft 484 kts 164°
2026-05-05 23:42 5.43972 16.85493 40930 ft 484 kts 164°
2026-05-05 23:42 5.37452 16.87232 40933 ft 485 kts 165°
2026-05-05 23:43 5.30929 16.88971 40931 ft 485 kts 164°
2026-05-05 23:43 5.24405 16.90709 40934 ft 485 kts 165°
2026-05-05 23:44 5.17884 16.92448 40936 ft 485 kts 165°
2026-05-05 23:44 5.11359 16.94186 40935 ft 485 kts 165°
2026-05-05 23:45 5.04831 16.95925 40936 ft 486 kts 165°
2026-05-05 23:45 4.98284 16.97674 40937 ft 487 kts 165°
2026-05-05 23:46 4.91735 16.99416 40933 ft 487 kts 165°
2026-05-05 23:46 4.85184 17.01159 40933 ft 487 kts 165°
2026-05-05 23:47 4.78677 17.02890 40933 ft 487 kts 165°
2026-05-05 23:47 4.72128 17.04634 40933 ft 487 kts 165°
2026-05-05 23:48 4.65587 17.06375 40934 ft 486 kts 165°
2026-05-05 23:48 4.59052 17.08116 40932 ft 486 kts 165°
2026-05-05 23:49 4.52514 17.09854 40934 ft 486 kts 165°
2026-05-05 23:49 4.45979 17.11587 40933 ft 486 kts 165°
2026-05-05 23:50 4.39443 17.13322 40931 ft 486 kts 165°
2026-05-05 23:50 4.32904 17.15057 40933 ft 487 kts 164°
2026-05-05 23:51 4.26355 17.16801 40929 ft 487 kts 164°
2026-05-05 23:51 4.19797 17.18545 40930 ft 487 kts 164°
2026-05-05 23:52 4.13242 17.20285 40934 ft 487 kts 164°
2026-05-05 23:52 4.06685 17.22027 40931 ft 487 kts 164°
2026-05-05 23:53 4.01234 17.23475 40929 ft 487 kts 164°
2026-05-05 23:53 3.94669 17.25220 40931 ft 490 kts 164°
2026-05-05 23:54 3.88071 17.26973 40927 ft 491 kts 164°
2026-05-05 23:54 3.81467 17.28727 40927 ft 491 kts 164°
2026-05-05 23:55 3.74865 17.30480 40923 ft 491 kts 164°
2026-05-05 23:55 3.68260 17.32236 40922 ft 491 kts 164°
2026-05-05 23:56 3.61658 17.33989 40922 ft 491 kts 164°
2026-05-05 23:56 3.55065 17.35735 40920 ft 490 kts 164°
2026-05-05 23:57 3.48472 17.37483 40920 ft 490 kts 164°
2026-05-05 23:57 3.41882 17.39230 40921 ft 490 kts 164°
2026-05-05 23:58 3.35287 17.40979 40919 ft 491 kts 164°
2026-05-05 23:58 3.28686 17.42729 40910 ft 491 kts 164°
2026-05-05 23:59 3.22072 17.44483 40910 ft 491 kts 164°
2026-05-05 23:59 3.15460 17.46235 40907 ft 491 kts 164°
2026-05-06 00:00 3.08853 17.47986 40908 ft 491 kts 164°
2026-05-06 00:00 3.02237 17.49739 40904 ft 492 kts 164°
2026-05-06 00:01 2.95625 17.51491 40901 ft 492 kts 164°
2026-05-06 00:01 2.89014 17.53243 40901 ft 491 kts 165°
2026-05-06 00:02 2.82451 17.54981 40898 ft 491 kts 165°
2026-05-06 00:02 2.75842 17.56731 40890 ft 491 kts 165°
2026-05-06 00:03 2.69235 17.58481 40892 ft 491 kts 165°
2026-05-06 00:03 2.62578 17.60243 40891 ft 491 kts 165°
2026-05-06 00:04 2.56018 17.61980 40893 ft 491 kts 165°
2026-05-06 00:04 2.49414 17.63729 40893 ft 490 kts 165°
2026-05-06 00:05 2.39524 17.66347 40889 ft 490 kts 165°
2026-05-06 00:06 2.32935 17.68090 40887 ft 490 kts 165°
2026-05-06 00:06 2.26347 17.69827 40882 ft 490 kts 165°
2026-05-06 00:07 2.19756 17.71566 40880 ft 490 kts 165°
2026-05-06 00:07 2.13160 17.73312 40882 ft 491 kts 165°
2026-05-06 00:08 2.06551 17.75060 40878 ft 492 kts 165°
2026-05-06 00:08 1.99929 17.76811 40879 ft 493 kts 165°
2026-05-06 00:09 1.93296 17.78565 40883 ft 493 kts 165°
2026-05-06 00:09 1.86664 17.80319 40879 ft 493 kts 165°
2026-05-06 00:10 1.80036 17.82072 40885 ft 493 kts 165°
2026-05-06 00:10 1.73411 17.83830 40885 ft 492 kts 165°
2026-05-06 00:11 1.66794 17.85581 40880 ft 492 kts 165°
2026-05-06 00:11 1.60175 17.87332 40879 ft 492 kts 165°
2026-05-06 00:12 1.53556 17.89083 40879 ft 492 kts 165°
2026-05-06 00:12 1.46981 17.90824 40881 ft 492 kts 165°
2026-05-06 00:13 1.40323 17.92587 40876 ft 491 kts 165°
2026-05-06 00:13 1.33764 17.94324 40877 ft 491 kts 165°
2026-05-06 00:14 1.27165 17.96073 40880 ft 491 kts 165°
2026-05-06 00:14 1.20560 17.97816 40882 ft 491 kts 165°
2026-05-06 00:15 1.13958 17.99559 40880 ft 491 kts 165°
2026-05-06 00:15 1.07355 18.01304 40879 ft 491 kts 165°
2026-05-06 00:16 1.00756 18.03048 40875 ft 490 kts 165°
2026-05-06 00:16 0.94158 18.04792 40876 ft 490 kts 165°
2026-05-06 00:17 0.87560 18.06536 40872 ft 490 kts 165°
2026-05-06 00:17 0.80961 18.08281 40878 ft 490 kts 165°
2026-05-06 00:18 0.74363 18.10024 40879 ft 490 kts 165°
2026-05-06 00:18 0.67764 18.11768 40876 ft 491 kts 165°
2026-05-06 00:19 0.61151 18.13516 40882 ft 491 kts 165°
2026-05-06 00:19 0.54542 18.15266 40879 ft 491 kts 165°
2026-05-06 00:20 0.47931 18.17023 40875 ft 491 kts 165°
2026-05-06 00:20 0.41366 18.18768 40879 ft 491 kts 165°
2026-05-06 00:21 0.34755 18.20525 40874 ft 492 kts 165°
2026-05-06 00:21 0.28146 18.22280 40881 ft 492 kts 165°
2026-05-06 00:22 0.21527 18.24038 40881 ft 492 kts 165°
2026-05-06 00:22 0.14912 18.25794 40882 ft 492 kts 165°
2026-05-06 00:23 0.08294 18.27552 40875 ft 492 kts 165°
2026-05-06 00:23 0.01672 18.29280 40880 ft 492 kts 167°
2026-05-06 00:24 -0.05042 18.30603 40882 ft 491 kts 170°
2026-05-06 00:24 -0.11760 18.31792 40875 ft 490 kts 170°
2026-05-06 00:25 -0.18460 18.33031 40879 ft 490 kts 169°
2026-05-06 00:25 -0.25152 18.34316 40878 ft 490 kts 169°
2026-05-06 00:26 -0.31839 18.35615 40872 ft 490 kts 169°
2026-05-06 00:26 -0.38530 18.36914 40881 ft 490 kts 169°
2026-05-06 00:27 -0.45221 18.38211 40882 ft 490 kts 169°
2026-05-06 00:27 -0.51911 18.39507 40875 ft 490 kts 169°
2026-05-06 00:28 -0.58603 18.40803 40881 ft 490 kts 169°
2026-05-06 00:28 -0.65295 18.42099 40872 ft 490 kts 169°
2026-05-06 00:29 -0.71985 18.43394 40881 ft 490 kts 169°
2026-05-06 00:29 -0.78675 18.44690 40880 ft 489 kts 169°
2026-05-06 00:30 -0.85360 18.45985 40881 ft 489 kts 169°
2026-05-06 00:30 -0.92040 18.47279 40882 ft 489 kts 169°
2026-05-06 00:31 -0.98720 18.48573 40882 ft 489 kts 169°
2026-05-06 00:31 -1.05397 18.49866 40877 ft 489 kts 169°
2026-05-06 00:32 -1.12027 18.51151 40882 ft 488 kts 169°
2026-05-06 00:32 -1.18675 18.52439 40877 ft 486 kts 169°
2026-05-06 00:33 -1.25309 18.53724 40882 ft 486 kts 169°
2026-05-06 00:33 -1.31946 18.55010 40873 ft 486 kts 169°
2026-05-06 00:34 -1.38583 18.56296 40880 ft 486 kts 169°
2026-05-06 00:34 -1.45217 18.57582 40879 ft 486 kts 169°
2026-05-06 00:35 -1.51837 18.58864 40878 ft 484 kts 169°
2026-05-06 00:35 -1.58437 18.60144 40876 ft 483 kts 169°
2026-05-06 00:36 -1.65034 18.61422 40880 ft 483 kts 169°
2026-05-06 00:36 -1.71635 18.62702 40881 ft 483 kts 169°
2026-05-06 00:37 -1.78231 18.63980 40881 ft 483 kts 169°
2026-05-06 00:37 -1.84833 18.65260 40878 ft 483 kts 169°
2026-05-06 00:38 -1.91420 18.66537 40883 ft 482 kts 169°
2026-05-06 00:38 -1.98009 18.67815 40874 ft 482 kts 169°
2026-05-06 00:39 -2.04598 18.69092 40879 ft 482 kts 169°
2026-05-06 00:39 -2.11185 18.70369 40878 ft 482 kts 169°
2026-05-06 00:40 -2.17727 18.71638 40883 ft 482 kts 169°
2026-05-06 00:40 -2.24305 18.72914 40884 ft 481 kts 169°
2026-05-06 00:41 -2.29811 18.73982 40880 ft 481 kts 169°
2026-05-06 00:41 -2.36380 18.75256 40878 ft 481 kts 169°
2026-05-06 00:42 -2.42943 18.76529 40882 ft 481 kts 169°
2026-05-06 00:42 -2.49517 18.77805 40883 ft 481 kts 169°
2026-05-06 00:43 -2.56089 18.79080 40884 ft 481 kts 169°
2026-05-06 00:43 -2.62665 18.80356 40884 ft 481 kts 169°
2026-05-06 00:44 -2.69241 18.81633 40883 ft 481 kts 169°
2026-05-06 00:44 -2.75818 18.82910 40873 ft 481 kts 169°
2026-05-06 00:45 -2.82391 18.84188 40884 ft 481 kts 169°
2026-05-06 00:45 -2.88968 18.85466 40889 ft 481 kts 169°
2026-05-06 00:46 -2.95531 18.86743 40876 ft 480 kts 170°
2026-05-06 00:46 -3.02080 18.88017 40887 ft 479 kts 170°
2026-05-06 00:47 -3.08628 18.89290 40883 ft 479 kts 170°
2026-05-06 00:47 -3.15175 18.90563 40888 ft 479 kts 170°
2026-05-06 00:48 -3.21718 18.91836 40885 ft 479 kts 170°
2026-05-06 00:48 -3.28223 18.93102 40889 ft 480 kts 169°
2026-05-06 00:49 -3.34800 18.94382 40886 ft 482 kts 169°
2026-05-06 00:49 -3.41382 18.95663 40888 ft 482 kts 169°
2026-05-06 00:50 -3.47967 18.96945 40888 ft 482 kts 169°
2026-05-06 00:50 -3.54551 18.98227 40893 ft 482 kts 169°
2026-05-06 00:51 -3.61138 18.99509 40885 ft 482 kts 169°
2026-05-06 00:51 -3.67725 19.00792 40893 ft 483 kts 169°
2026-05-06 00:52 -3.74324 19.02077 40895 ft 483 kts 169°
2026-05-06 00:52 -3.80925 19.03363 40895 ft 483 kts 169°
2026-05-06 00:53 -3.87523 19.04648 40891 ft 483 kts 169°
2026-05-06 00:53 -3.94126 19.05936 40897 ft 483 kts 169°
2026-05-06 00:54 -4.00727 19.07222 40885 ft 483 kts 169°
2026-05-06 00:54 -4.07330 19.08509 40894 ft 483 kts 169°
2026-05-06 00:55 -4.13930 19.09795 40892 ft 483 kts 169°
2026-05-06 00:55 -4.20531 19.11083 40886 ft 483 kts 169°
2026-05-06 00:56 -4.27133 19.12370 40896 ft 483 kts 169°
2026-05-06 00:56 -4.33699 19.13651 40894 ft 484 kts 169°
2026-05-06 00:57 -4.40324 19.14943 40899 ft 485 kts 169°
2026-05-06 00:57 -4.46949 19.16236 40904 ft 485 kts 169°
2026-05-06 00:58 -4.53580 19.17530 40906 ft 485 kts 169°
2026-05-06 00:58 -4.60206 19.18823 40897 ft 485 kts 169°
2026-05-06 00:59 -4.66835 19.20118 40911 ft 485 kts 169°
2026-05-06 00:59 -4.73465 19.21412 40910 ft 486 kts 169°
2026-05-06 01:00 -4.80099 19.22708 40913 ft 486 kts 169°
2026-05-06 01:00 -4.86740 19.24006 40912 ft 486 kts 169°
2026-05-06 01:01 -4.93381 19.25303 40907 ft 486 kts 169°
2026-05-06 01:01 -5.00019 19.26601 40911 ft 486 kts 169°
2026-05-06 01:02 -5.06657 19.27898 40916 ft 487 kts 169°
2026-05-06 01:02 -5.13265 19.29206 40918 ft 488 kts 167°
2026-05-06 01:03 -5.19764 19.31159 40913 ft 488 kts 162°
2026-05-06 01:03 -5.26201 19.33321 40922 ft 488 kts 161°
2026-05-06 01:04 -5.32631 19.35523 40924 ft 488 kts 161°
2026-05-06 01:04 -5.39058 19.37719 40916 ft 488 kts 162°
2026-05-06 01:05 -5.45485 19.39906 40916 ft 487 kts 162°
2026-05-06 01:05 -5.51900 19.42085 40926 ft 487 kts 162°
2026-05-06 01:06 -5.58310 19.44263 40923 ft 486 kts 162°
2026-05-06 01:06 -5.64723 19.46443 40925 ft 486 kts 162°
2026-05-06 01:07 -5.71473 19.48738 40923 ft 486 kts 162°
2026-05-06 01:07 -5.77882 19.50918 40926 ft 487 kts 162°
2026-05-06 01:08 -5.84303 19.53103 40916 ft 488 kts 162°
2026-05-06 01:08 -5.90823 19.54976 40919 ft 487 kts 167°
2026-05-06 01:09 -5.97429 19.56497 40924 ft 487 kts 168°
2026-05-06 01:09 -6.04079 19.58054 40927 ft 487 kts 167°
2026-05-06 01:10 -6.10620 19.59657 40918 ft 487 kts 167°
2026-05-06 01:10 -6.17211 19.61302 40925 ft 488 kts 166°
2026-05-06 01:11 -6.23801 19.62952 40914 ft 488 kts 166°
2026-05-06 01:11 -6.29329 19.64334 40920 ft 488 kts 166°
2026-05-06 01:12 -6.35922 19.65980 40922 ft 488 kts 167°
2026-05-06 01:12 -6.42513 19.67626 40918 ft 488 kts 167°
2026-05-06 01:13 -6.49069 19.69264 40927 ft 489 kts 167°
2026-05-06 01:13 -6.55683 19.70916 40922 ft 490 kts 167°
2026-05-06 01:14 -6.65613 19.73398 40924 ft 490 kts 167°
2026-05-06 01:14 -6.72236 19.75054 40918 ft 490 kts 167°
2026-05-06 01:15 -6.78859 19.76708 40934 ft 490 kts 167°
2026-05-06 01:15 -6.85517 19.78223 40925 ft 491 kts 169°
2026-05-06 01:16 -6.92211 19.79672 40937 ft 492 kts 169°
2026-05-06 01:16 -6.98896 19.81138 40929 ft 491 kts 168°
2026-05-06 01:17 -7.05573 19.82621 40932 ft 491 kts 168°
2026-05-06 01:17 -7.12248 19.84112 40933 ft 491 kts 168°
2026-05-06 01:18 -7.18919 19.85603 40940 ft 491 kts 168°
2026-05-06 01:18 -7.25588 19.87092 40930 ft 491 kts 168°
2026-05-06 01:19 -7.32256 19.88605 40935 ft 491 kts 168°
2026-05-06 01:19 -7.38920 19.90130 40942 ft 491 kts 168°
2026-05-06 01:20 -7.45582 19.91652 40934 ft 491 kts 168°
2026-05-06 01:20 -7.52245 19.93171 40936 ft 491 kts 168°
2026-05-06 01:21 -7.58865 19.94680 40939 ft 491 kts 168°
2026-05-06 01:21 -7.65527 19.96199 40935 ft 491 kts 168°
2026-05-06 01:22 -7.72187 19.97718 40935 ft 491 kts 168°
2026-05-06 01:22 -7.78852 19.99238 40937 ft 491 kts 168°
2026-05-06 01:23 -7.85515 20.00759 40936 ft 491 kts 169°
2026-05-06 01:23 -7.92187 20.02282 40944 ft 492 kts 169°
2026-05-06 01:24 -7.98872 20.03809 40949 ft 493 kts 169°
2026-05-06 01:24 -8.05553 20.05349 40951 ft 493 kts 168°
2026-05-06 01:25 -8.12232 20.06904 40936 ft 493 kts 168°
2026-05-06 01:25 -8.18911 20.08459 40934 ft 493 kts 168°
2026-05-06 01:26 -8.25602 20.10014 40944 ft 494 kts 169°
2026-05-06 01:26 -8.32303 20.11571 40937 ft 494 kts 169°
2026-05-06 01:27 -8.39008 20.13129 40942 ft 494 kts 169°
2026-05-06 01:27 -8.45713 20.14688 40940 ft 494 kts 169°
2026-05-06 01:28 -8.52403 20.16244 40936 ft 493 kts 169°
2026-05-06 01:28 -8.59092 20.17801 40943 ft 494 kts 169°
2026-05-06 01:29 -8.65796 20.19361 40943 ft 495 kts 169°
2026-05-06 01:29 -8.72506 20.20923 40946 ft 495 kts 169°
2026-05-06 01:30 -8.79172 20.22476 40936 ft 495 kts 169°
2026-05-06 01:30 -8.85925 20.24050 40948 ft 495 kts 169°
2026-05-06 01:31 -8.92595 20.25605 40940 ft 496 kts 169°
2026-05-06 01:31 -8.99318 20.27172 40934 ft 496 kts 169°
2026-05-06 01:32 -9.06048 20.28742 40940 ft 496 kts 169°
2026-05-06 01:32 -9.12779 20.30313 40951 ft 496 kts 169°
2026-05-06 01:33 -9.19508 20.31884 40941 ft 496 kts 169°
2026-05-06 01:33 -9.26232 20.33455 40950 ft 495 kts 170°
2026-05-06 01:34 -9.32931 20.35021 40951 ft 493 kts 170°
2026-05-06 01:34 -9.39616 20.36583 40953 ft 493 kts 170°
2026-05-06 01:35 -9.46296 20.38145 40956 ft 493 kts 170°
2026-05-06 01:35 -9.52977 20.39708 40958 ft 493 kts 170°
2026-05-06 01:36 -9.59657 20.41271 40952 ft 493 kts 170°
2026-05-06 01:36 -9.66337 20.42837 40959 ft 493 kts 170°
2026-05-06 01:37 -9.72860 20.45035 40950 ft 495 kts 162°
2026-05-06 01:37 -9.79293 20.47572 40956 ft 496 kts 161°
2026-05-06 01:38 -9.85711 20.50166 40963 ft 497 kts 161°
2026-05-06 01:38 -9.92138 20.52762 40959 ft 497 kts 161°
2026-05-06 01:39 -9.98566 20.55346 40950 ft 497 kts 161°
2026-05-06 01:39 -10.05003 20.57930 40950 ft 497 kts 161°
2026-05-06 01:40 -10.11390 20.60495 40971 ft 497 kts 161°
2026-05-06 01:40 -10.17827 20.63081 40951 ft 497 kts 161°
2026-05-06 01:41 -10.24258 20.65666 40950 ft 497 kts 161°
2026-05-06 01:41 -10.30693 20.68254 40956 ft 497 kts 161°
2026-05-06 01:42 -10.37124 20.70842 40960 ft 497 kts 161°
2026-05-06 01:42 -10.43555 20.73430 40960 ft 497 kts 161°
2026-05-06 01:43 -10.49982 20.76019 40954 ft 497 kts 161°
2026-05-06 01:43 -10.56415 20.78611 40954 ft 497 kts 161°
2026-05-06 01:44 -10.62846 20.81203 40954 ft 497 kts 161°
2026-05-06 01:44 -10.69281 20.83798 40955 ft 498 kts 161°
2026-05-06 01:45 -10.75719 20.86396 40955 ft 498 kts 161°
2026-05-06 01:45 -10.82158 20.88994 40953 ft 498 kts 161°
2026-05-06 01:46 -10.88601 20.91596 40953 ft 498 kts 161°
2026-05-06 01:46 -10.95038 20.94197 40952 ft 498 kts 161°
2026-05-06 01:47 -11.01477 20.96799 40953 ft 498 kts 161°
2026-05-06 01:47 -11.07918 20.99404 40953 ft 498 kts 161°
2026-05-06 01:48 -11.14356 21.02009 40952 ft 498 kts 161°
2026-05-06 01:48 -11.20790 21.04613 40952 ft 498 kts 161°
2026-05-06 01:49 -11.27231 21.07222 40958 ft 498 kts 161°
2026-05-06 01:49 -11.33749 21.09863 40953 ft 497 kts 161°
2026-05-06 01:50 -11.40180 21.12470 40954 ft 497 kts 161°
2026-05-06 01:50 -11.46615 21.15079 40950 ft 498 kts 161°
2026-05-06 01:51 -11.53057 21.17693 40952 ft 499 kts 161°
2026-05-06 01:51 -11.59501 21.20309 40959 ft 499 kts 161°
2026-05-06 01:52 -11.65949 21.22928 40957 ft 499 kts 161°
2026-05-06 01:52 -11.72396 21.25548 40958 ft 499 kts 161°
2026-05-06 01:53 -11.78839 21.28168 40952 ft 499 kts 161°
2026-05-06 01:53 -11.85283 21.30789 40955 ft 499 kts 161°
2026-05-06 01:54 -11.90641 21.32969 40955 ft 499 kts 161°
2026-05-06 01:54 -11.97082 21.35592 40958 ft 498 kts 161°
2026-05-06 01:55 -12.03526 21.38217 40958 ft 498 kts 161°
2026-05-06 01:55 -12.09966 21.40842 40952 ft 498 kts 161°
2026-05-06 01:56 -12.16403 21.43467 40955 ft 498 kts 161°
2026-05-06 01:56 -12.22844 21.46095 40955 ft 498 kts 161°
2026-05-06 01:57 -12.29282 21.48723 40956 ft 498 kts 162°
2026-05-06 01:57 -12.35724 21.51354 40955 ft 499 kts 162°
2026-05-06 01:58 -12.42165 21.53986 40949 ft 499 kts 162°
2026-05-06 01:58 -12.48607 21.56620 40949 ft 498 kts 162°
2026-05-06 01:59 -12.55050 21.59256 40949 ft 499 kts 162°
2026-05-06 01:59 -12.61492 21.61893 40951 ft 499 kts 162°
2026-05-06 02:00 -12.67909 21.64521 40956 ft 500 kts 162°
2026-05-06 02:00 -12.74374 21.67170 40953 ft 501 kts 162°
2026-05-06 02:01 -12.80842 21.69822 40952 ft 501 kts 162°
2026-05-06 02:01 -12.87308 21.72474 40957 ft 501 kts 162°
2026-05-06 02:02 -12.93777 21.75129 40959 ft 501 kts 162°
2026-05-06 02:02 -13.00275 21.77740 40959 ft 502 kts 163°
2026-05-06 02:03 -13.06823 21.80212 40952 ft 501 kts 163°
2026-05-06 02:03 -13.13377 21.82675 40957 ft 502 kts 163°
2026-05-06 02:04 -13.19924 21.85162 40955 ft 502 kts 163°
2026-05-06 02:04 -13.26470 21.87663 40960 ft 503 kts 163°
2026-05-06 02:05 -13.33031 21.90174 40958 ft 503 kts 163°
2026-05-06 02:05 -13.39594 21.92687 40957 ft 504 kts 163°
2026-05-06 02:06 -13.46159 21.95201 40955 ft 504 kts 163°
2026-05-06 02:06 -13.52727 21.97718 40955 ft 504 kts 163°
2026-05-06 02:07 -13.59295 22.00236 40954 ft 504 kts 163°
2026-05-06 02:07 -13.65874 22.02750 40953 ft 505 kts 163°
2026-05-06 02:08 -13.72462 22.05250 40958 ft 505 kts 163°
2026-05-06 02:08 -13.79047 22.07750 40954 ft 505 kts 163°
2026-05-06 02:09 -13.85633 22.10257 40952 ft 505 kts 163°
2026-05-06 02:09 -13.92219 22.12767 40952 ft 505 kts 163°
2026-05-06 02:10 -13.98774 22.15266 40955 ft 506 kts 163°
2026-05-06 02:10 -14.05378 22.17786 40956 ft 506 kts 163°
2026-05-06 02:11 -14.11985 22.20309 40949 ft 506 kts 163°
2026-05-06 02:11 -14.18594 22.22834 40949 ft 506 kts 163°
2026-05-06 02:12 -14.25203 22.25360 40949 ft 506 kts 163°
2026-05-06 02:12 -14.31800 22.27884 40949 ft 506 kts 163°
2026-05-06 02:13 -14.38413 22.30414 40949 ft 506 kts 163°
2026-05-06 02:13 -14.45002 22.32999 40947 ft 508 kts 161°
2026-05-06 02:14 -14.51481 22.35929 40949 ft 509 kts 159°
2026-05-06 02:14 -14.57935 22.38930 40949 ft 509 kts 159°
2026-05-06 02:15 -14.64413 22.41890 40944 ft 509 kts 160°
2026-05-06 02:15 -14.70901 22.44820 40944 ft 509 kts 160°
2026-05-06 02:16 -14.77401 22.47745 40947 ft 510 kts 160°
2026-05-06 02:16 -14.83903 22.50675 40958 ft 510 kts 160°
2026-05-06 02:17 -14.90414 22.53613 40945 ft 511 kts 160°
2026-05-06 02:17 -14.96932 22.56557 40945 ft 511 kts 160°
2026-05-06 02:18 -15.03450 22.59503 40940 ft 511 kts 160°
2026-05-06 02:18 -15.09969 22.62451 40940 ft 511 kts 160°
2026-05-06 02:19 -15.16485 22.65400 40945 ft 511 kts 160°
2026-05-06 02:19 -15.23010 22.68354 40939 ft 512 kts 160°
2026-05-06 02:20 -15.32801 22.72792 40937 ft 512 kts 160°
2026-05-06 02:21 -15.39330 22.75753 40937 ft 512 kts 160°
2026-05-06 02:21 -15.45854 22.78715 40926 ft 512 kts 160°
2026-05-06 02:22 -15.52391 22.81684 40935 ft 513 kts 160°
2026-05-06 02:22 -15.58936 22.84659 40935 ft 514 kts 160°
2026-05-06 02:23 -15.65492 22.87628 40934 ft 513 kts 161°
2026-05-06 02:23 -15.72064 22.90371 40935 ft 512 kts 163°
2026-05-06 02:24 -15.78752 22.93075 40949 ft 513 kts 163°
2026-05-06 02:24 -15.85396 22.95793 40937 ft 513 kts 163°
2026-05-06 02:25 -15.92037 22.98537 40936 ft 514 kts 162°
2026-05-06 02:25 -15.98678 23.01294 40937 ft 514 kts 162°
2026-05-06 02:26 -16.05274 23.04034 40937 ft 514 kts 162°
2026-05-06 02:26 -16.11913 23.06792 40932 ft 514 kts 163°
2026-05-06 02:27 -16.18560 23.09555 40936 ft 515 kts 163°
2026-05-06 02:27 -16.25211 23.12320 40937 ft 515 kts 162°
2026-05-06 02:28 -16.31871 23.15093 40939 ft 516 kts 162°
2026-05-06 02:28 -16.38535 23.17869 40937 ft 516 kts 162°
2026-05-06 02:29 -16.45195 23.20646 40931 ft 516 kts 163°
2026-05-06 02:29 -16.51866 23.23429 40932 ft 516 kts 163°
2026-05-06 02:30 -16.58537 23.26214 40932 ft 516 kts 163°
2026-05-06 02:30 -16.65209 23.29001 40931 ft 517 kts 163°
2026-05-06 02:31 -16.71879 23.31791 40941 ft 517 kts 163°
2026-05-06 02:31 -16.78559 23.34585 40932 ft 517 kts 163°
2026-05-06 02:32 -16.85242 23.37384 40931 ft 518 kts 163°
2026-05-06 02:32 -16.91926 23.40185 40933 ft 518 kts 163°
2026-05-06 02:33 -16.98568 23.42971 40919 ft 518 kts 163°
2026-05-06 02:33 -17.00822 23.43916 40938 ft 518 kts 163°
2026-05-06 02:34 -17.11955 23.48591 40931 ft 519 kts 163°
2026-05-06 02:34 -17.18662 23.51411 40934 ft 520 kts 163°
2026-05-06 02:35 -17.25368 23.54233 40928 ft 519 kts 163°
2026-05-06 02:35 -17.32075 23.57057 40927 ft 519 kts 163°
2026-05-06 02:36 -17.38780 23.59882 40928 ft 519 kts 163°
2026-05-06 02:36 -17.45488 23.62710 40928 ft 519 kts 163°
2026-05-06 02:37 -17.52189 23.65538 40927 ft 519 kts 163°
2026-05-06 02:37 -17.58895 23.68372 40926 ft 520 kts 163°
2026-05-06 02:38 -17.65512 23.71508 40930 ft 524 kts 159°
2026-05-06 02:38 -17.72077 23.74856 40920 ft 525 kts 159°
2026-05-06 02:39 -17.78735 23.77967 40919 ft 523 kts 162°
2026-05-06 02:39 -17.85459 23.80883 40922 ft 523 kts 162°
2026-05-06 02:40 -17.91043 23.83307 40927 ft 523 kts 162°
2026-05-06 02:40 -17.97775 23.86227 40918 ft 524 kts 163°
2026-05-06 02:41 -18.04526 23.89150 40929 ft 525 kts 163°
2026-05-06 02:41 -18.11274 23.92085 40935 ft 525 kts 163°
2026-05-06 02:42 -18.18026 23.95029 40929 ft 525 kts 163°
2026-05-06 02:42 -18.24777 23.97977 40937 ft 526 kts 163°
2026-05-06 02:43 -18.31549 24.00934 40935 ft 527 kts 163°
2026-05-06 02:43 -18.38313 24.03936 40938 ft 528 kts 162°
2026-05-06 02:44 -18.45038 24.07057 40928 ft 528 kts 161°
2026-05-06 02:44 -18.51764 24.10191 40961 ft 529 kts 162°
2026-05-06 02:45 -18.58508 24.13317 40942 ft 530 kts 162°
2026-05-06 02:45 -18.65270 24.16441 40940 ft 531 kts 162°
2026-05-06 02:46 -18.72031 24.19567 40941 ft 531 kts 162°
2026-05-06 02:46 -18.78790 24.22695 40939 ft 530 kts 162°
2026-05-06 02:47 -18.85555 24.25828 40950 ft 532 kts 162°
2026-05-06 02:47 -18.92342 24.28962 40946 ft 532 kts 163°
2026-05-06 02:48 -18.99209 24.31836 40947 ft 530 kts 165°
2026-05-06 02:48 -19.06108 24.34605 40952 ft 530 kts 165°
2026-05-06 02:49 -19.12995 24.37408 40959 ft 531 kts 165°
2026-05-06 02:49 -19.19848 24.40389 40954 ft 534 kts 163°
2026-05-06 02:50 -19.26632 24.43463 40951 ft 534 kts 163°
2026-05-06 02:50 -19.33469 24.46548 40960 ft 534 kts 163°
2026-05-06 02:51 -19.40358 24.49632 40979 ft 534 kts 163°
2026-05-06 02:51 -19.47158 24.52668 40963 ft 534 kts 163°
2026-05-06 02:52 -19.54009 24.55728 40969 ft 534 kts 163°
2026-05-06 02:52 -19.60861 24.58794 40969 ft 534 kts 163°
2026-05-06 02:53 -19.67709 24.61861 41000 ft 534 kts 163°
2026-05-06 02:53 -19.74562 24.64904 40974 ft 533 kts 163°
2026-05-06 02:54 -19.81422 24.67913 40974 ft 533 kts 163°
2026-05-06 02:54 -19.88277 24.70924 40979 ft 533 kts 163°
2026-05-06 02:55 -19.95132 24.73945 40984 ft 533 kts 163°
2026-05-06 02:55 -20.01984 24.76972 40971 ft 533 kts 163°
2026-05-06 02:56 -20.08825 24.79997 40968 ft 532 kts 163°
2026-05-06 02:56 -20.15661 24.83021 40975 ft 532 kts 163°
2026-05-06 02:57 -20.22530 24.85933 40975 ft 530 kts 166°
2026-05-06 02:57 -20.29477 24.88525 40972 ft 529 kts 167°
2026-05-06 02:58 -20.36427 24.91095 40991 ft 529 kts 167°
2026-05-06 02:58 -20.43363 24.93718 40997 ft 529 kts 167°
2026-05-06 02:59 -20.50190 24.96779 40997 ft 534 kts 160°
2026-05-06 02:59 -20.56900 25.00216 41006 ft 535 kts 160°
2026-05-06 03:00 -20.63626 25.03623 40992 ft 535 kts 161°
2026-05-06 03:00 -20.70388 25.06963 40999 ft 536 kts 161°
2026-05-06 03:01 -20.77161 25.10278 41004 ft 536 kts 161°
2026-05-06 03:01 -20.83940 25.13595 41025 ft 535 kts 161°
2026-05-06 03:02 -20.90705 25.16913 41009 ft 535 kts 161°
2026-05-06 03:02 -20.97468 25.20234 41005 ft 535 kts 161°
2026-05-06 03:03 -21.04246 25.23493 41010 ft 533 kts 163°
2026-05-06 03:03 -21.11140 25.26364 41034 ft 531 kts 166°
2026-05-06 03:04 -21.18049 25.29159 41009 ft 531 kts 166°
2026-05-06 03:04 -21.24948 25.32013 41010 ft 532 kts 165°
2026-05-06 03:05 -21.31797 25.34892 41008 ft 533 kts 165°
2026-05-06 03:05 -21.38695 25.37807 41033 ft 533 kts 165°
2026-05-06 03:06 -21.45599 25.40726 41017 ft 533 kts 165°
2026-05-06 03:06 -21.52505 25.43647 41018 ft 533 kts 165°
2026-05-06 03:07 -21.59413 25.46571 41021 ft 534 kts 165°
2026-05-06 03:07 -21.66295 25.49593 41063 ft 535 kts 163°
2026-05-06 03:08 -21.73143 25.52762 41022 ft 537 kts 163°
2026-05-06 03:08 -21.80001 25.55939 41023 ft 537 kts 163°
2026-05-06 03:09 -21.86868 25.59096 41023 ft 537 kts 163°
2026-05-06 03:09 -21.93740 25.62246 41048 ft 537 kts 163°
2026-05-06 03:10 -22.00608 25.65395 41026 ft 537 kts 163°
2026-05-06 03:10 -22.07489 25.68554 41029 ft 538 kts 163°
2026-05-06 03:11 -22.14372 25.71718 41030 ft 538 kts 163°
2026-05-06 03:11 -22.21258 25.74888 41059 ft 538 kts 163°
2026-05-06 03:12 -22.28139 25.78059 41031 ft 538 kts 163°
2026-05-06 03:12 -22.34977 25.81213 41031 ft 538 kts 163°
2026-05-06 03:13 -22.41858 25.84390 41031 ft 538 kts 163°
2026-05-06 03:13 -22.48735 25.87569 41082 ft 538 kts 163°
2026-05-06 03:14 -22.55610 25.90751 41034 ft 538 kts 163°
2026-05-06 03:14 -22.62489 25.93937 41035 ft 537 kts 163°
2026-05-06 03:15 -22.69363 25.97124 41035 ft 538 kts 163°
2026-05-06 03:15 -22.76252 26.00322 41064 ft 539 kts 163°
2026-05-06 03:16 -22.83141 26.03525 41033 ft 539 kts 163°
2026-05-06 03:16 -22.90037 26.06733 41034 ft 539 kts 163°
2026-05-06 03:17 -22.96932 26.09945 41034 ft 539 kts 163°
2026-05-06 03:17 -23.03825 26.13159 41036 ft 539 kts 163°
2026-05-06 03:18 -23.10715 26.16376 41034 ft 539 kts 163°
2026-05-06 03:18 -23.17603 26.19595 41034 ft 539 kts 163°
2026-05-06 03:19 -23.24496 26.22821 41034 ft 539 kts 163°
2026-05-06 03:19 -23.31385 26.26047 41035 ft 539 kts 163°
2026-05-06 03:20 -23.41738 26.30903 41038 ft 540 kts 163°
2026-05-06 03:20 -23.48597 26.34125 41038 ft 541 kts 163°
2026-05-06 03:21 -23.55551 26.37396 41038 ft 541 kts 163°
2026-05-06 03:21 -23.62416 26.40628 41032 ft 542 kts 163°
2026-05-06 03:22 -23.69392 26.43916 41031 ft 543 kts 163°
2026-05-06 03:22 -23.76321 26.47178 41034 ft 542 kts 163°
2026-05-06 03:23 -23.83212 26.50407 41055 ft 543 kts 163°
2026-05-06 03:23 -23.90161 26.53664 41031 ft 544 kts 163°
2026-05-06 03:24 -23.97122 26.56934 41008 ft 545 kts 163°
2026-05-06 03:24 -24.04084 26.60212 41034 ft 544 kts 163°
2026-05-06 03:25 -24.11038 26.63490 41039 ft 545 kts 163°
2026-05-06 03:25 -24.18012 26.66779 41031 ft 547 kts 163°
2026-05-06 03:26 -24.23821 26.69523 41031 ft 547 kts 163°
2026-05-06 03:26 -24.30744 26.73027 41033 ft 554 kts 155°
2026-05-06 03:27 -24.36941 26.78180 41042 ft 563 kts 143°
2026-05-06 03:27 -24.42856 26.83878 41028 ft 567 kts 142°
2026-05-06 03:28 -24.48723 26.89672 41020 ft 567 kts 142°
2026-05-06 03:28 -24.54598 26.95448 41032 ft 567 kts 142°
2026-05-06 03:29 -24.60487 27.01205 41038 ft 567 kts 142°
2026-05-06 03:29 -24.66391 27.06972 40794 ft 567 kts 142°
2026-05-06 03:30 -24.69338 27.09853 40487 ft 566 kts 142°
2026-05-06 03:30 -24.72278 27.12731 39825 ft 567 kts 142°
2026-05-06 03:30 -24.75224 27.15616 39180 ft 568 kts 142°
2026-05-06 03:30 -24.78175 27.18509 38445 ft 569 kts 142°
2026-05-06 03:31 -24.81131 27.21407 37737 ft 569 kts 141°
2026-05-06 03:31 -24.84084 27.24305 37060 ft 569 kts 141°
2026-05-06 03:31 -24.87039 27.27206 36327 ft 570 kts 141°
2026-05-06 03:31 -24.90000 27.30115 35595 ft 571 kts 140°
2026-05-06 03:32 -24.92967 27.33033 34925 ft 571 kts 140°
2026-05-06 03:32 -24.95928 27.35947 34334 ft 570 kts 140°
2026-05-06 03:32 -24.98877 27.38852 33717 ft 568 kts 140°
2026-05-06 03:32 -25.02005 27.41451 33103 ft 558 kts 154°
2026-05-06 03:33 -25.05505 27.43144 32577 ft 543 kts 170°
2026-05-06 03:33 -25.09151 27.43856 32010 ft 523 kts 186°
2026-05-06 03:33 -25.12744 27.43891 31480 ft 513 kts 190°
2026-05-06 03:33 -25.16301 27.43835 30976 ft 509 kts 189°
2026-05-06 03:34 -25.19829 27.43810 30471 ft 506 kts 189°
2026-05-06 03:34 -25.23340 27.43815 29944 ft 503 kts 189°
2026-05-06 03:34 -25.26823 27.43839 29405 ft 498 kts 188°
2026-05-06 03:34 -25.30273 27.43875 28905 ft 493 kts 188°
2026-05-06 03:35 -25.33688 27.43915 28435 ft 488 kts 188°
2026-05-06 03:35 -25.37074 27.43958 27919 ft 484 kts 188°
2026-05-06 03:35 -25.40427 27.44002 27431 ft 480 kts 188°
2026-05-06 03:35 -25.43707 27.44046 26941 ft 476 kts 189°
2026-05-06 03:36 -25.46999 27.44090 26460 ft 472 kts 189°
2026-05-06 03:36 -25.50271 27.44135 25971 ft 468 kts 189°
2026-05-06 03:36 -25.53515 27.44179 25480 ft 464 kts 189°
2026-05-06 03:36 -25.56731 27.44224 25138 ft 458 kts 189°
2026-05-06 03:37 -25.59869 27.44273 24984 ft 445 kts 189°
2026-05-06 03:37 -25.62923 27.44320 24829 ft 434 kts 189°
2026-05-06 03:37 -25.65906 27.44364 24636 ft 424 kts 190°
2026-05-06 03:37 -25.68845 27.44497 24283 ft 428 kts 182°
2026-05-06 03:38 -25.71748 27.45465 23842 ft 446 kts 159°
2026-05-06 03:38 -25.74301 27.47475 23316 ft 455 kts 137°
2026-05-06 03:38 -25.76161 27.50281 22932 ft 450 kts 116°
2026-05-06 03:38 -25.77577 27.53348 22523 ft 445 kts 114°
2026-05-06 03:39 -25.79010 27.56379 22083 ft 443 kts 116°
2026-05-06 03:39 -25.80514 27.59352 21668 ft 440 kts 117°
2026-05-06 03:39 -25.82055 27.62270 21270 ft 436 kts 118°
2026-05-06 03:39 -25.83610 27.65141 20836 ft 433 kts 118°
2026-05-06 03:40 -25.85177 27.67993 20426 ft 431 kts 118°
2026-05-06 03:40 -25.86739 27.70820 20064 ft 428 kts 118°
2026-05-06 03:40 -25.88291 27.73617 19689 ft 424 kts 118°
2026-05-06 03:40 -25.89835 27.76393 19316 ft 420 kts 118°
2026-05-06 03:41 -25.91367 27.79142 18931 ft 417 kts 117°
2026-05-06 03:41 -25.92888 27.81878 18538 ft 415 kts 117°
2026-05-06 03:41 -25.94398 27.84597 18128 ft 412 kts 117°
2026-05-06 03:41 -25.95895 27.87292 17666 ft 405 kts 117°
2026-05-06 03:42 -25.97350 27.89907 17194 ft 390 kts 117°
2026-05-06 03:42 -25.98767 27.92456 16847 ft 386 kts 117°
2026-05-06 03:42 -26.00167 27.94981 16501 ft 381 kts 117°
2026-05-06 03:42 -26.01532 27.97438 16350 ft 363 kts 117°
2026-05-06 03:43 -26.02820 27.99752 16220 ft 342 kts 117°
2026-05-06 03:43 -26.04038 28.01944 16104 ft 326 kts 117°
2026-05-06 03:43 -26.05220 28.04084 15844 ft 323 kts 117°
2026-05-06 03:43 -26.06389 28.06203 15575 ft 320 kts 117°
2026-05-06 03:44 -26.07713 28.08197 15287 ft 322 kts 137°
2026-05-06 03:44 -26.09613 28.09394 15057 ft 308 kts 174°
2026-05-06 03:44 -26.11683 28.09751 14806 ft 299 kts 185°
2026-05-06 03:44 -26.13743 28.09880 14537 ft 291 kts 195°
2026-05-06 03:45 -26.15632 28.09448 14309 ft 269 kts 214°
2026-05-06 03:45 -26.17374 28.08745 14072 ft 265 kts 217°
2026-05-06 03:45 -26.19090 28.08018 13829 ft 263 kts 216°
2026-05-06 03:45 -26.20802 28.07299 13584 ft 262 kts 216°
2026-05-06 03:46 -26.22503 28.06599 13352 ft 259 kts 215°
2026-05-06 03:46 -26.24183 28.05915 13125 ft 255 kts 215°
2026-05-06 03:46 -26.25838 28.05243 12899 ft 252 kts 215°
2026-05-06 03:46 -26.27476 28.04577 12685 ft 250 kts 215°
2026-05-06 03:47 -26.29105 28.03914 12442 ft 248 kts 214°
2026-05-06 03:47 -26.30699 28.03266 12274 ft 246 kts 214°
2026-05-06 03:47 -26.32296 28.02619 12019 ft 242 kts 213°
2026-05-06 03:47 -26.33865 28.01985 11762 ft 238 kts 213°
2026-05-06 03:48 -26.35459 28.01445 11520 ft 245 kts 202°
2026-05-06 03:48 -26.37213 28.01566 11264 ft 265 kts 168°
2026-05-06 03:48 -26.38743 28.02743 10986 ft 275 kts 129°
2026-05-06 03:48 -26.39470 28.04671 10691 ft 269 kts 92°
2026-05-06 03:49 -26.39208 28.06646 10419 ft 251 kts 57°
2026-05-06 03:49 -26.38205 28.08117 10187 ft 231 kts 27°
2026-05-06 03:49 -26.36905 28.09129 9966 ft 232 kts 20°
2026-05-06 03:49 -26.35479 28.10102 9901 ft 246 kts 21°
2026-05-06 03:50 -26.34038 28.11116 9631 ft 246 kts 24°
2026-05-06 03:50 -26.32753 28.12455 9183 ft 262 kts 48°
2026-05-06 03:50 -26.31843 28.14202 8995 ft 258 kts 57°
2026-05-06 03:50 -26.31065 28.15931 8915 ft 242 kts 57°
2026-05-06 03:51 -26.30296 28.17537 8771 ft 225 kts 49°
2026-05-06 03:51 -26.29207 28.18634 8612 ft 201 kts 27°
2026-05-06 03:51 -26.28033 28.19272 8386 ft 177 kts
2026-05-06 03:51 -26.26890 28.19594 8150 ft 164 kts
2026-05-06 03:52 -26.25823 28.19946 7902 ft 155 kts
2026-05-06 03:52 -26.24820 28.20266 7709 ft 146 kts
2026-05-06 03:52 -26.23841 28.20570 7526 ft 146 kts
2026-05-06 03:52 -26.22870 28.20872 7329 ft 147 kts
2026-05-06 03:53 -26.21868 28.21186 7137 ft 148 kts 10°
2026-05-06 03:53 -26.20877 28.21495 6962 ft 148 kts 11°
2026-05-06 03:53 -26.19896 28.21800 6758 ft 149 kts 12°
2026-05-06 03:53 -26.18894 28.22112 6549 ft 149 kts 13°
2026-05-06 03:54 -26.17893 28.22422 6347 ft 149 kts 13°
2026-05-06 03:54 -26.16890 28.22729 6105 ft 149 kts 13°
2026-05-06 03:54 -26.15908 28.23047 5887 ft 145 kts 13°
2026-05-06 03:54 -26.14941 28.23346 5659 ft 143 kts 12°
2026-05-06 03:55 -26.13991 28.23632 5561 ft 135 kts 12°
2026-05-06 03:55 -26.13146 28.23885 5531 ft 117 kts 15°
2026-05-06 03:55 -26.12580 28.24070 5523 ft 44 kts 17°
2026-05-06 03:55 -26.12399 28.24129 5520 ft 29 kts 15°
2026-05-06 03:56 -26.12184 28.24196 5516 ft 33 kts 16°
2026-05-06 03:56 -26.11996 28.24256 5513 ft 14 kts 16°
2026-05-06 03:56 -26.11899 28.24268 5513 ft 14 kts 340°
2026-05-06 03:56 -26.11847 28.24189 5512 ft 12 kts 282°
2026-05-06 03:57 -26.11866 28.24106 5512 ft 11 kts 224°
2026-05-06 03:57 -26.11933 28.24073 5513 ft 12 kts 198°
2026-05-06 03:57 -26.12024 28.24043 5515 ft 14 kts 196°
2026-05-06 03:57 -26.12119 28.24013 5516 ft 14 kts 196°
2026-05-06 03:58 -26.12216 28.23982 5518 ft 15 kts 195°
2026-05-06 03:58 -26.12294 28.23958 5519 ft 17 kts 195°
2026-05-06 03:58 -26.12416 28.23921 5521 ft 23 kts 195°
2026-05-06 03:58 -26.12571 28.23873 5523 ft 23 kts 195°
2026-05-06 03:59 -26.12726 28.23826 5525 ft 23 kts 195°
2026-05-06 03:59 -26.12881 28.23779 5527 ft 22 kts 195°
2026-05-06 03:59 -26.12995 28.23744 5528 ft 14 kts 195°
2026-05-06 03:59 -26.13089 28.23714 5530 ft 14 kts 199°
2026-05-06 04:00 -26.13126 28.23632 5530 ft 13 kts 275°
2026-05-06 04:00 -26.13114 28.23532 5530 ft 14 kts 277°
2026-05-06 04:00 -26.13119 28.23434 5531 ft 12 kts 238°
2026-05-06 04:00 -26.13188 28.23407 5532 ft 11 kts 186°
2026-05-06 04:01 -26.13267 28.23399 5533 ft 11 kts 184°
2026-05-06 04:01 -26.13333 28.23394 5534 ft 8 kts 184°
2026-05-06 04:01 -26.13355 28.23375 5537 ft 2 kts 246°
2026-05-06 04:01 -26.13354 28.23367 5534 ft 2 kts 269°
2026-05-06 04:02 -26.13352 28.23334 5534 ft 5 kts 276°
2026-05-06 04:02 -26.13350 28.23306 5534 ft 0 kts 276°